Observation data for Stinnett on 09/11/2017      Previous  Date  Next       Current Mesonet Observations  Soil Data  Daily Summary Page  Observations in Plain Language
KST3 110500Z 16012KT 19/10 A3024 RMK A01 T01940097  RH  053%=      5-min Rain = 0
KST3 110501Z 16012KT 19/10 A3024 RMK A01 T01940097  RH  053%=      5-min Rain = 0
KST3 110502Z 16010KT 19/10 A3024 RMK A01 T01940096  RH  053%=      5-min Rain = 0
KST3 110503Z 16012KT 19/10 A3024 RMK A01 T01930096  RH  053%=      5-min Rain = 0
KST3 110504Z 16011KT 19/10 A3024 RMK A01 T01930096  RH  053%=      5-min Rain = 0
KST3 110505Z 16011KT 19/10 A3024 RMK A01 T01930096  RH  053%=      5-min Rain = 0
KST3 110506Z 16014KT 19/10 A3024 RMK A01 T01920095  RH  053%=      5-min Rain = 0
KST3 110507Z 16012KT 19/10 A3024 RMK A01 T01930095  RH  053%=      5-min Rain = 0
KST3 110508Z 16011KT 19/10 A3024 RMK A01 T01930095  RH  053%=      5-min Rain = 0
KST3 110509Z 16012KT 19/10 A3024 RMK A01 T01930095  RH  053%=      5-min Rain = 0
KST3 110510Z 16012KT 19/10 A3024 RMK A01 T01930095  RH  053%=      5-min Rain = 0
KST3 110511Z 16011KT 19/10 A3024 RMK A01 T01930095  RH  053%=      5-min Rain = 0
KST3 110512Z 16009KT 19/10 A3024 RMK A01 T01930095  RH  053%=      5-min Rain = 0
KST3 110513Z 16009KT 19/09 A3024 RMK A01 T01920094  RH  053%=      5-min Rain = 0
KST3 110514Z 16011KT 19/09 A3024 RMK A01 T01910094  RH  053%=      5-min Rain = 0
KST3 110515Z 16010KT 19/09 A3024 RMK A01 T01910094  RH  053%=      5-min Rain = 0
KST3 110516Z 16011KT 19/09 A3024 RMK A01 T01920094  RH  053%=      5-min Rain = 0
KST3 110517Z 16011KT 19/09 A3024 RMK A01 T01920094  RH  053%=      5-min Rain = 0
KST3 110518Z 16009KT 19/09 A3024 RMK A01 T01930094  RH  053%=      5-min Rain = 0
KST3 110519Z 16009KT 19/09 A3024 RMK A01 T01920094  RH  053%=      5-min Rain = 0
KST3 110520Z 16010KT 19/09 A3024 RMK A01 T01910094  RH  053%=      5-min Rain = 0
KST3 110521Z 16012KT 19/09 A3024 RMK A01 T01910094  RH  053%=      5-min Rain = 0
KST3 110522Z 16011KT 19/09 A3024 RMK A01 T01920094  RH  053%=      5-min Rain = 0
KST3 110523Z 17009KT 19/09 A3024 RMK A01 T01930094  RH  052%=      5-min Rain = 0
KST3 110524Z 16010KT 19/09 A3024 RMK A01 T01930093  RH  052%=      5-min Rain = 0
KST3 110525Z 16010KT 19/09 A3024 RMK A01 T01930094  RH  053%=      5-min Rain = 0
KST3 110526Z 17009KT 19/09 A3024 RMK A01 T01920093  RH  053%=      5-min Rain = 0
KST3 110527Z 17011KT 19/09 A3024 RMK A01 T01920093  RH  053%=      5-min Rain = 0
KST3 110528Z 17009KT 19/09 A3024 RMK A01 T01920093  RH  053%=      5-min Rain = 0
KST3 110529Z 17010KT 19/09 A3024 RMK A01 T01920093  RH  053%=      5-min Rain = 0
KST3 110530Z 17009KT 19/09 A3024 RMK A01 T01920093  RH  053%=      5-min Rain = 0
KST3 110531Z 17011KT 19/09 A3024 RMK A01 T01920093  RH  053%=      5-min Rain = 0
KST3 110532Z 17010KT 19/09 A3024 RMK A01 T01910093  RH  053%=      5-min Rain = 0
KST3 110533Z 17008KT 19/09 A3024 RMK A01 T01910093  RH  053%=      5-min Rain = 0
KST3 110534Z 16009KT 19/09 A3024 RMK A01 T01910093  RH  053%=      5-min Rain = 0
KST3 110535Z 17011KT 19/09 A3024 RMK A01 T01910093  RH  053%=      5-min Rain = 0
KST3 110536Z 17009KT 19/09 A3024 RMK A01 T01910093  RH  053%=      5-min Rain = 0
KST3 110537Z 17009KT 19/09 A3024 RMK A01 T01900093  RH  053%=      5-min Rain = 0
KST3 110538Z 17008KT 19/09 A3024 RMK A01 T01900092  RH  053%=      5-min Rain = 0
KST3 110539Z 17009KT 19/09 A3024 RMK A01 T01900092  RH  053%=      5-min Rain = 0
KST3 110540Z 17009KT 19/09 A3024 RMK A01 T01900092  RH  053%=      5-min Rain = 0
KST3 110541Z 17010KT 19/09 A3024 RMK A01 T01900092  RH  053%=      5-min Rain = 0
KST3 110542Z 17009KT 19/09 A3024 RMK A01 T01900092  RH  053%=      5-min Rain = 0
KST3 110543Z 17010KT 19/09 A3024 RMK A01 T01890092  RH  053%=      5-min Rain = 0
KST3 110544Z 16012KT 19/09 A3024 RMK A01 T01900092  RH  053%=      5-min Rain = 0
KST3 110545Z 17010KT 19/09 A3024 RMK A01 T01890092  RH  053%=      5-min Rain = 0
KST3 110546Z 17009KT 19/09 A3024 RMK A01 T01900092  RH  053%=      5-min Rain = 0
KST3 110547Z 17009KT 19/09 A3024 RMK A01 T01890092  RH  053%=      5-min Rain = 0
KST3 110548Z 17008KT 19/09 A3024 RMK A01 T01880092  RH  054%=      5-min Rain = 0
KST3 110549Z 16010KT 19/09 A3024 RMK A01 T01880092  RH  054%=      5-min Rain = 0
KST3 110550Z 17008KT 19/09 A3024 RMK A01 T01870092  RH  054%=      5-min Rain = 0
KST3 110551Z 17011KT 19/09 A3024 RMK A01 T01880092  RH  054%=      5-min Rain = 0
KST3 110552Z 17008KT 19/09 A3024 RMK A01 T01880092  RH  054%=      5-min Rain = 0
KST3 110553Z 17008KT 19/09 A3024 RMK A01 T01890092  RH  053%=      5-min Rain = 0
KST3 110554Z 16009KT 19/09 A3024 RMK A01 T01880092  RH  054%=      5-min Rain = 0
KST3 110555Z 17008KT 19/09 A3024 RMK A01 T01870092  RH  054%=      5-min Rain = 0
KST3 110556Z 17010KT 19/09 A3024 RMK A01 T01870093  RH  054%=      5-min Rain = 0
KST3 110557Z 16010KT 19/09 A3024 RMK A01 T01870092  RH  054%=      5-min Rain = 0
KST3 110558Z 16009KT 19/09 A3024 RMK A01 T01880092  RH  054%=      5-min Rain = 0
KST3 110559Z 17010KT 19/09 A3024 RMK A01 T01880092  RH  054%=      5-min Rain = 0
KST3 110600Z 17008KT 19/09 A3024 RMK A01 T01880093  RH  054%=      5-min Rain = 0
KST3 110601Z 17010KT 19/09 A3024 RMK A01 T01880092  RH  054%=      5-min Rain = 0
KST3 110602Z 16009KT 19/09 A3024 RMK A01 T01870092  RH  054%=      5-min Rain = 0
KST3 110603Z 16010KT 19/09 A3024 RMK A01 T01870092  RH  054%=      5-min Rain = 0
KST3 110604Z 16009KT 19/09 A3024 RMK A01 T01870092  RH  054%=      5-min Rain = 0
KST3 110605Z 16009KT 19/09 A3024 RMK A01 T01870092  RH  054%=      5-min Rain = 0
KST3 110606Z 17008KT 19/09 A3024 RMK A01 T01870092  RH  054%=      5-min Rain = 0
KST3 110607Z 17008KT 19/09 A3024 RMK A01 T01870093  RH  054%=      5-min Rain = 0
KST3 110608Z 17009KT 19/09 A3024 RMK A01 T01860092  RH  054%=      5-min Rain = 0
KST3 110609Z 17009KT 19/09 A3024 RMK A01 T01860093  RH  054%=      5-min Rain = 0
KST3 110610Z 17009KT 19/09 A3024 RMK A01 T01860093  RH  054%=      5-min Rain = 0
KST3 110611Z 16008KT 19/09 A3024 RMK A01 T01860093  RH  054%=      5-min Rain = 0
KST3 110612Z 17008KT 19/09 A3024 RMK A01 T01860092  RH  054%=      5-min Rain = 0
KST3 110613Z 17008KT 19/09 A3024 RMK A01 T01860093  RH  054%=      5-min Rain = 0
KST3 110614Z 17008KT 19/09 A3024 RMK A01 T01860092  RH  054%=      5-min Rain = 0
KST3 110615Z 17007KT 19/09 A3024 RMK A01 T01850092  RH  055%=      5-min Rain = 0
KST3 110616Z 17007KT 19/09 A3024 RMK A01 T01850092  RH  055%=      5-min Rain = 0
KST3 110617Z 17007KT 18/09 A3024 RMK A01 T01840092  RH  055%=      5-min Rain = 0
KST3 110618Z 17008KT 18/09 A3024 RMK A01 T01840092  RH  055%=      5-min Rain = 0
KST3 110619Z 17009KT 18/09 A3024 RMK A01 T01830092  RH  055%=      5-min Rain = 0
KST3 110620Z 17009KT 18/09 A3024 RMK A01 T01840093  RH  055%=      5-min Rain = 0
KST3 110621Z 17009KT 19/09 A3024 RMK A01 T01850093  RH  055%=      5-min Rain = 0
KST3 110622Z 17008KT 19/09 A3024 RMK A01 T01850092  RH  055%=      5-min Rain = 0
KST3 110623Z 17010KT 19/09 A3024 RMK A01 T01850092  RH  055%=      5-min Rain = 0
KST3 110624Z 17008KT 19/09 A3024 RMK A01 T01850092  RH  055%=      5-min Rain = 0
KST3 110625Z 17009KT 19/09 A3024 RMK A01 T01850092  RH  055%=      5-min Rain = 0
KST3 110626Z 17009KT 19/09 A3024 RMK A01 T01850092  RH  055%=      5-min Rain = 0
KST3 110627Z 17007KT 18/09 A3024 RMK A01 T01840092  RH  055%=      5-min Rain = 0
KST3 110628Z 17008KT 19/09 A3024 RMK A01 T01850093  RH  055%=      5-min Rain = 0
KST3 110629Z 17008KT 18/09 A3024 RMK A01 T01840093  RH  055%=      5-min Rain = 0
KST3 110630Z 17008KT 18/09 A3024 RMK A01 T01830093  RH  055%=      5-min Rain = 0
KST3 110631Z 17008KT 18/09 A3024 RMK A01 T01830092  RH  055%=      5-min Rain = 0
KST3 110632Z 17008KT 18/09 A3024 RMK A01 T01830092  RH  055%=      5-min Rain = 0
KST3 110633Z 17008KT 18/09 A3024 RMK A01 T01830092  RH  055%=      5-min Rain = 0
KST3 110634Z 17009KT 18/09 A3024 RMK A01 T01820092  RH  056%=      5-min Rain = 0
KST3 110635Z 17008KT 18/09 A3024 RMK A01 T01820092  RH  056%=      5-min Rain = 0
KST3 110636Z 17009KT 18/09 A3024 RMK A01 T01820092  RH  056%=      5-min Rain = 0
KST3 110637Z 18009KT 18/09 A3024 RMK A01 T01820092  RH  056%=      5-min Rain = 0
KST3 110638Z 18009KT 18/09 A3024 RMK A01 T01820092  RH  056%=      5-min Rain = 0
KST3 110639Z 18009KT 18/09 A3024 RMK A01 T01830093  RH  056%=      5-min Rain = 0
KST3 110640Z 18010KT 18/09 A3024 RMK A01 T01830093  RH  056%=      5-min Rain = 0
KST3 110641Z 18010KT 18/09 A3024 RMK A01 T01830093  RH  056%=      5-min Rain = 0
KST3 110642Z 18010KT 18/09 A3024 RMK A01 T01820093  RH  056%=      5-min Rain = 0
KST3 110643Z 18010KT 18/09 A3024 RMK A01 T01820093  RH  056%=      5-min Rain = 0
KST3 110644Z 18009KT 18/09 A3024 RMK A01 T01820093  RH  056%=      5-min Rain = 0
KST3 110645Z 17009KT 18/09 A3024 RMK A01 T01820093  RH  056%=      5-min Rain = 0
KST3 110646Z 17009G14KT 18/09 A3024 RMK A01 T01810093  RH  056%=      5-min Rain = 0
KST3 110647Z 18010KT 18/09 A3024 RMK A01 T01810093  RH  056%=      5-min Rain = 0
KST3 110648Z 17010KT 18/09 A3024 RMK A01 T01810093  RH  056%=      5-min Rain = 0
KST3 110649Z 18010KT 18/09 A3024 RMK A01 T01810093  RH  056%=      5-min Rain = 0
KST3 110650Z 18009KT 18/09 A3024 RMK A01 T01810093  RH  056%=      5-min Rain = 0
KST3 110651Z 18009KT 18/09 A3024 RMK A01 T01810093  RH  056%=      5-min Rain = 0
KST3 110652Z 18010KT 18/09 A3024 RMK A01 T01800093  RH  056%=      5-min Rain = 0
KST3 110653Z 18009KT 18/09 A3024 RMK A01 T01800092  RH  056%=      5-min Rain = 0
KST3 110654Z 18009KT 18/09 A3024 RMK A01 T01800093  RH  056%=      5-min Rain = 0
KST3 110655Z 18008KT 18/09 A3024 RMK A01 T01800093  RH  056%=      5-min Rain = 0
KST3 110656Z 18009KT 18/09 A3024 RMK A01 T01800092  RH  057%=      5-min Rain = 0
KST3 110657Z 18010KT 18/09 A3024 RMK A01 T01790092  RH  057%=      5-min Rain = 0
KST3 110658Z 18008KT 18/09 A3024 RMK A01 T01800093  RH  057%=      5-min Rain = 0
KST3 110659Z 19008KT 18/09 A3024 RMK A01 T01800093  RH  057%=      5-min Rain = 0
KST3 110700Z 19007KT 18/09 A3024 RMK A01 T01790092  RH  057%=      5-min Rain = 0
KST3 110701Z 19007KT 18/09 A3024 RMK A01 T01790092  RH  057%=      5-min Rain = 0
KST3 110702Z 19007KT 18/09 A3024 RMK A01 T01780093  RH  057%=      5-min Rain = 0
KST3 110703Z 19007KT 18/09 A3024 RMK A01 T01780093  RH  057%=      5-min Rain = 0
KST3 110704Z 19007KT 18/09 A3024 RMK A01 T01780093  RH  057%=      5-min Rain = 0
KST3 110705Z 18009KT 18/09 A3024 RMK A01 T01770092  RH  057%=      5-min Rain = 0
KST3 110706Z 19008KT 18/09 A3024 RMK A01 T01770092  RH  057%=      5-min Rain = 0
KST3 110707Z 19009KT 18/09 A3024 RMK A01 T01770092  RH  057%=      5-min Rain = 0
KST3 110708Z 18008KT 18/09 A3024 RMK A01 T01770092  RH  057%=      5-min Rain = 0
KST3 110709Z 18009KT 18/09 A3024 RMK A01 T01770092  RH  057%=      5-min Rain = 0
KST3 110710Z 18009KT 18/09 A3024 RMK A01 T01770092  RH  057%=      5-min Rain = 0
KST3 110711Z 18007KT 18/09 A3024 RMK A01 T01780092  RH  057%=      5-min Rain = 0
KST3 110712Z 19008KT 18/09 A3024 RMK A01 T01780092  RH  057%=      5-min Rain = 0
KST3 110713Z 18008KT 18/09 A3024 RMK A01 T01780092  RH  057%=      5-min Rain = 0
KST3 110714Z 18007KT 18/09 A3024 RMK A01 T01780092  RH  057%=      5-min Rain = 0
KST3 110715Z 18009KT 18/09 A3024 RMK A01 T01770092  RH  057%=      5-min Rain = 0
KST3 110716Z 18008KT 18/09 A3024 RMK A01 T01770092  RH  057%=      5-min Rain = 0
KST3 110717Z 18008KT 18/09 A3024 RMK A01 T01770092  RH  057%=      5-min Rain = 0
KST3 110718Z 18009KT 18/09 A3024 RMK A01 T01760091  RH  057%=      5-min Rain = 0
KST3 110719Z 18008KT 18/09 A3024 RMK A01 T01760092  RH  057%=      5-min Rain = 0
KST3 110720Z 18008KT 18/09 A3024 RMK A01 T01770092  RH  057%=      5-min Rain = 0
KST3 110721Z 18008KT 18/09 A3024 RMK A01 T01760091  RH  057%=      5-min Rain = 0
KST3 110722Z 18009KT 18/09 A3024 RMK A01 T01760091  RH  058%=      5-min Rain = 0
KST3 110723Z 18010KT 18/09 A3024 RMK A01 T01760091  RH  058%=      5-min Rain = 0
KST3 110724Z 18011KT 18/09 A3024 RMK A01 T01760091  RH  057%=      5-min Rain = 0
KST3 110725Z 17010KT 18/09 A3024 RMK A01 T01770091  RH  057%=      5-min Rain = 0
KST3 110726Z 17010KT 18/09 A3024 RMK A01 T01770091  RH  057%=      5-min Rain = 0
KST3 110727Z 18012G17KT 18/09 A3024 RMK A01 T01770091  RH  057%=      5-min Rain = 0
KST3 110728Z 18010KT 18/09 A3024 RMK A01 T01780091  RH  057%=      5-min Rain = 0
KST3 110729Z 18011KT 18/09 A3024 RMK A01 T01790091  RH  056%=      5-min Rain = 0
KST3 110730Z 18012KT 18/09 A3024 RMK A01 T01790091  RH  056%=      5-min Rain = 0
KST3 110731Z 18013KT 18/09 A3024 RMK A01 T01790091  RH  056%=      5-min Rain = 0
KST3 110732Z 18011G16KT 18/09 A3024 RMK A01 T01790090  RH  056%=      5-min Rain = 0
KST3 110733Z 19011KT 18/09 A3024 RMK A01 T01790090  RH  056%=      5-min Rain = 0
KST3 110734Z 18010KT 18/09 A3024 RMK A01 T01790090  RH  056%=      5-min Rain = 0
KST3 110735Z 18010KT 18/09 A3024 RMK A01 T01790091  RH  056%=      5-min Rain = 0
KST3 110736Z 19010KT 18/09 A3024 RMK A01 T01790091  RH  056%=      5-min Rain = 0
KST3 110737Z 19010KT 18/09 A3024 RMK A01 T01780090  RH  057%=      5-min Rain = 0
KST3 110738Z 19009KT 18/09 A3024 RMK A01 T01780091  RH  057%=      5-min Rain = 0
KST3 110739Z 19007KT 18/09 A3024 RMK A01 T01770091  RH  057%=      5-min Rain = 0
KST3 110740Z 19007KT 18/09 A3024 RMK A01 T01750090  RH  057%=      5-min Rain = 0
KST3 110741Z 19008KT 17/09 A3024 RMK A01 T01730090  RH  058%=      5-min Rain = 0
KST3 110742Z 20007KT 17/09 A3024 RMK A01 T01710090  RH  059%=      5-min Rain = 0
KST3 110743Z 19007KT 17/09 A3024 RMK A01 T01700090  RH  059%=      5-min Rain = 0
KST3 110744Z 19007KT 17/09 A3024 RMK A01 T01690090  RH  060%=      5-min Rain = 0
KST3 110745Z 19007KT 17/09 A3024 RMK A01 T01680090  RH  060%=      5-min Rain = 0
KST3 110746Z 20007KT 17/09 A3024 RMK A01 T01670090  RH  060%=      5-min Rain = 0
KST3 110747Z 20007KT 17/09 A3024 RMK A01 T01670090  RH  061%=      5-min Rain = 0
KST3 110748Z 19008KT 17/09 A3024 RMK A01 T01650090  RH  061%=      5-min Rain = 0
KST3 110749Z 20007KT 16/09 A3024 RMK A01 T01640090  RH  061%=      5-min Rain = 0
KST3 110750Z 19007KT 16/09 A3024 RMK A01 T01640091  RH  062%=      5-min Rain = 0
KST3 110751Z 20007KT 16/09 A3024 RMK A01 T01640090  RH  062%=      5-min Rain = 0
KST3 110752Z 19007KT 16/09 A3024 RMK A01 T01640091  RH  062%=      5-min Rain = 0
KST3 110753Z 19008KT 16/09 A3024 RMK A01 T01630090  RH  062%=      5-min Rain = 0
KST3 110754Z 19008KT 16/09 A3024 RMK A01 T01630091  RH  062%=      5-min Rain = 0
KST3 110755Z 19008KT 16/09 A3024 RMK A01 T01630090  RH  062%=      5-min Rain = 0
KST3 110756Z 19009KT 16/09 A3024 RMK A01 T01630090  RH  062%=      5-min Rain = 0
KST3 110757Z 19009KT 16/09 A3024 RMK A01 T01640091  RH  062%=      5-min Rain = 0
KST3 110758Z 19009KT 16/09 A3024 RMK A01 T01640091  RH  062%=      5-min Rain = 0
KST3 110759Z 19009KT 16/09 A3024 RMK A01 T01640091  RH  062%=      5-min Rain = 0
KST3 110800Z 19009KT 17/09 A3024 RMK A01 T01650091  RH  061%=      5-min Rain = 0
KST3 110801Z 19008KT 17/09 A3023 RMK A01 T01650091  RH  061%=      5-min Rain = 0
KST3 110802Z 19008KT 17/09 A3023 RMK A01 T01650090  RH  061%=      5-min Rain = 0
KST3 110803Z 19009KT 17/09 A3023 RMK A01 T01650091  RH  062%=      5-min Rain = 0
KST3 110804Z 19008KT 16/09 A3023 RMK A01 T01640091  RH  062%=      5-min Rain = 0
KST3 110805Z 19008KT 16/09 A3023 RMK A01 T01640091  RH  062%=      5-min Rain = 0
KST3 110806Z 19008KT 16/09 A3024 RMK A01 T01640091  RH  062%=      5-min Rain = 0
KST3 110807Z 19009KT 16/09 A3023 RMK A01 T01630090  RH  062%=      5-min Rain = 0
KST3 110808Z 19008KT 16/09 A3023 RMK A01 T01630090  RH  062%=      5-min Rain = 0
KST3 110809Z 19008KT 16/09 A3023 RMK A01 T01640091  RH  062%=      5-min Rain = 0
KST3 110810Z 19008KT 16/09 A3023 RMK A01 T01640091  RH  062%=      5-min Rain = 0
KST3 110811Z 19009KT 16/09 A3023 RMK A01 T01640090  RH  062%=      5-min Rain = 0
KST3 110812Z 19009KT 16/09 A3023 RMK A01 T01630091  RH  062%=      5-min Rain = 0
KST3 110813Z 19009KT 16/09 A3023 RMK A01 T01630091  RH  062%=      5-min Rain = 0
KST3 110814Z 19009KT 16/09 A3023 RMK A01 T01640091  RH  062%=      5-min Rain = 0
KST3 110815Z 19010KT 16/09 A3023 RMK A01 T01640091  RH  062%=      5-min Rain = 0
KST3 110816Z 19009KT 17/09 A3023 RMK A01 T01650091  RH  062%=      5-min Rain = 0
KST3 110817Z 19009KT 17/09 A3023 RMK A01 T01650091  RH  061%=      5-min Rain = 0
KST3 110818Z 19008KT 17/09 A3023 RMK A01 T01650091  RH  061%=      5-min Rain = 0
KST3 110819Z 19009KT 17/09 A3023 RMK A01 T01650091  RH  061%=      5-min Rain = 0
KST3 110820Z 19008KT 17/09 A3023 RMK A01 T01650091  RH  062%=      5-min Rain = 0
KST3 110821Z 19009KT 17/09 A3023 RMK A01 T01650091  RH  062%=      5-min Rain = 0
KST3 110822Z 19009KT 16/09 A3023 RMK A01 T01640091  RH  062%=      5-min Rain = 0
KST3 110823Z 19008KT 16/09 A3023 RMK A01 T01640091  RH  062%=      5-min Rain = 0
KST3 110824Z 19009KT 16/09 A3023 RMK A01 T01640091  RH  062%=      5-min Rain = 0
KST3 110825Z 19009KT 16/09 A3023 RMK A01 T01640091  RH  062%=      5-min Rain = 0
KST3 110826Z 19010KT 16/09 A3023 RMK A01 T01640091  RH  062%=      5-min Rain = 0
KST3 110827Z 19010KT 16/09 A3023 RMK A01 T01640090  RH  062%=      5-min Rain = 0
KST3 110828Z 19010KT 16/09 A3023 RMK A01 T01640090  RH  062%=      5-min Rain = 0
KST3 110829Z 19010KT 17/09 A3023 RMK A01 T01650091  RH  061%=      5-min Rain = 0
KST3 110830Z 19010KT 17/09 A3023 RMK A01 T01650091  RH  061%=      5-min Rain = 0
KST3 110831Z 19009KT 17/09 A3023 RMK A01 T01650090  RH  061%=      5-min Rain = 0
KST3 110832Z 19009KT 17/09 A3023 RMK A01 T01660091  RH  061%=      5-min Rain = 0
KST3 110833Z 19011KT 17/09 A3023 RMK A01 T01660091  RH  061%=      5-min Rain = 0
KST3 110834Z 19010KT 17/09 A3023 RMK A01 T01660090  RH  061%=      5-min Rain = 0
KST3 110835Z 20009KT 17/09 A3023 RMK A01 T01660090  RH  061%=      5-min Rain = 0
KST3 110836Z 19009KT 17/09 A3023 RMK A01 T01670090  RH  061%=      5-min Rain = 0
KST3 110837Z 20008KT 17/09 A3023 RMK A01 T01660090  RH  061%=      5-min Rain = 0
KST3 110838Z 20008KT 17/09 A3023 RMK A01 T01650090  RH  061%=      5-min Rain = 0
KST3 110839Z 20009KT 16/09 A3023 RMK A01 T01640089  RH  061%=      5-min Rain = 0
KST3 110840Z 20009KT 16/09 A3023 RMK A01 T01620089  RH  062%=      5-min Rain = 0
KST3 110841Z 20009KT 16/09 A3023 RMK A01 T01600089  RH  062%=      5-min Rain = 0
KST3 110842Z 20008KT 16/09 A3023 RMK A01 T01590089  RH  063%=      5-min Rain = 0
KST3 110843Z 20009KT 16/09 A3023 RMK A01 T01580089  RH  063%=      5-min Rain = 0
KST3 110844Z 20008KT 16/09 A3023 RMK A01 T01580089  RH  064%=      5-min Rain = 0
KST3 110845Z 19009KT 16/09 A3023 RMK A01 T01580089  RH  064%=      5-min Rain = 0
KST3 110846Z 20009KT 16/09 A3023 RMK A01 T01590090  RH  063%=      5-min Rain = 0
KST3 110847Z 20008KT 16/09 A3023 RMK A01 T01590089  RH  063%=      5-min Rain = 0
KST3 110848Z 20008KT 16/09 A3023 RMK A01 T01590089  RH  063%=      5-min Rain = 0
KST3 110849Z 20009KT 16/09 A3023 RMK A01 T01590089  RH  063%=      5-min Rain = 0
KST3 110850Z 20009KT 16/09 A3023 RMK A01 T01580089  RH  064%=      5-min Rain = 0
KST3 110851Z 19009KT 16/09 A3023 RMK A01 T01580089  RH  064%=      5-min Rain = 0
KST3 110852Z 20009KT 16/09 A3023 RMK A01 T01580089  RH  064%=      5-min Rain = 0
KST3 110853Z 19008KT 16/09 A3023 RMK A01 T01580090  RH  064%=      5-min Rain = 0
KST3 110854Z 20008KT 16/09 A3023 RMK A01 T01580089  RH  064%=      5-min Rain = 0
KST3 110855Z 20008KT 16/09 A3023 RMK A01 T01580089  RH  064%=      5-min Rain = 0
KST3 110856Z 19008KT 16/09 A3023 RMK A01 T01580089  RH  064%=      5-min Rain = 0
KST3 110857Z 20008KT 16/09 A3023 RMK A01 T01580090  RH  064%=      5-min Rain = 0
KST3 110858Z 20008KT 16/09 A3023 RMK A01 T01580089  RH  064%=      5-min Rain = 0
KST3 110859Z 19008KT 16/09 A3023 RMK A01 T01590090  RH  064%=      5-min Rain = 0
KST3 110900Z 19008KT 16/09 A3023 RMK A01 T01580089  RH  064%=      5-min Rain = 0
KST3 110901Z 19008KT 16/09 A3023 RMK A01 T01580089  RH  064%=      5-min Rain = 0
KST3 110902Z 19009KT 16/09 A3023 RMK A01 T01580089  RH  064%=      5-min Rain = 0
KST3 110903Z 19009KT 16/09 A3023 RMK A01 T01590090  RH  064%=      5-min Rain = 0
KST3 110904Z 19009KT 16/09 A3023 RMK A01 T01590090  RH  063%=      5-min Rain = 0
KST3 110905Z 19008KT 16/09 A3023 RMK A01 T01590089  RH  063%=      5-min Rain = 0
KST3 110906Z 19009KT 16/09 A3023 RMK A01 T01590089  RH  063%=      5-min Rain = 0
KST3 110907Z 19009KT 16/09 A3023 RMK A01 T01590090  RH  063%=      5-min Rain = 0
KST3 110908Z 19008KT 16/09 A3023 RMK A01 T01590090  RH  063%=      5-min Rain = 0
KST3 110909Z 20008KT 16/09 A3023 RMK A01 T01590090  RH  063%=      5-min Rain = 0
KST3 110910Z 20008KT 16/09 A3023 RMK A01 T01580089  RH  064%=      5-min Rain = 0
KST3 110911Z 20008KT 16/09 A3023 RMK A01 T01580089  RH  064%=      5-min Rain = 0
KST3 110912Z 20008KT 16/09 A3023 RMK A01 T01570089  RH  064%=      5-min Rain = 0
KST3 110913Z 20008KT 16/09 A3023 RMK A01 T01560089  RH  064%=      5-min Rain = 0
KST3 110914Z 19008KT 16/09 A3023 RMK A01 T01560089  RH  065%=      5-min Rain = 0
KST3 110915Z 19007KT 16/09 A3023 RMK A01 T01560090  RH  065%=      5-min Rain = 0
KST3 110916Z 20007KT 16/09 A3023 RMK A01 T01560090  RH  065%=      5-min Rain = 0
KST3 110917Z 19007KT 16/09 A3023 RMK A01 T01550089  RH  065%=      5-min Rain = 0
KST3 110918Z 19007KT 16/09 A3023 RMK A01 T01560090  RH  065%=      5-min Rain = 0
KST3 110919Z 20007KT 16/09 A3023 RMK A01 T01550090  RH  065%=      5-min Rain = 0
KST3 110920Z 19007KT 16/09 A3023 RMK A01 T01550089  RH  065%=      5-min Rain = 0
KST3 110921Z 19007KT 16/09 A3023 RMK A01 T01550090  RH  065%=      5-min Rain = 0
KST3 110922Z 19007KT 15/09 A3022 RMK A01 T01540089  RH  065%=      5-min Rain = 0
KST3 110923Z 19007KT 15/09 A3022 RMK A01 T01540089  RH  065%=      5-min Rain = 0
KST3 110924Z 19007KT 15/09 A3022 RMK A01 T01530089  RH  066%=      5-min Rain = 0
KST3 110925Z 19007KT 15/09 A3022 RMK A01 T01530089  RH  066%=      5-min Rain = 0
KST3 110926Z 20007KT 15/09 A3022 RMK A01 T01530089  RH  066%=      5-min Rain = 0
KST3 110927Z 20007KT 15/09 A3022 RMK A01 T01530089  RH  066%=      5-min Rain = 0
KST3 110928Z 20007KT 15/09 A3022 RMK A01 T01530089  RH  066%=      5-min Rain = 0
KST3 110929Z 20007KT 15/09 A3022 RMK A01 T01510088  RH  066%=      5-min Rain = 0
KST3 110930Z 20008KT 15/09 A3022 RMK A01 T01490088  RH  067%=      5-min Rain = 0
KST3 110931Z 20008KT 15/09 A3022 RMK A01 T01480088  RH  067%=      5-min Rain = 0
KST3 110932Z 20007KT 15/09 A3022 RMK A01 T01470088  RH  068%=      5-min Rain = 0
KST3 110933Z 21008KT 15/09 A3022 RMK A01 T01460088  RH  068%=      5-min Rain = 0
KST3 110934Z 20007KT 15/09 A3022 RMK A01 T01450087  RH  068%=      5-min Rain = 0
KST3 110935Z 20008KT 14/09 A3022 RMK A01 T01440087  RH  069%=      5-min Rain = 0
KST3 110936Z 21008KT 14/09 A3023 RMK A01 T01440088  RH  069%=      5-min Rain = 0
KST3 110937Z 20008KT 15/09 A3023 RMK A01 T01450088  RH  068%=      5-min Rain = 0
KST3 110938Z 21007KT 15/09 A3023 RMK A01 T01450088  RH  068%=      5-min Rain = 0
KST3 110939Z 21007KT 15/09 A3023 RMK A01 T01450088  RH  068%=      5-min Rain = 0
KST3 110940Z 21007KT 15/09 A3023 RMK A01 T01450088  RH  069%=      5-min Rain = 0
KST3 110941Z 21007KT 14/09 A3023 RMK A01 T01440088  RH  069%=      5-min Rain = 0
KST3 110942Z 21008KT 14/09 A3023 RMK A01 T01440088  RH  069%=      5-min Rain = 0
KST3 110943Z 21008KT 14/09 A3023 RMK A01 T01430088  RH  069%=      5-min Rain = 0
KST3 110944Z 22008KT 14/09 A3023 RMK A01 T01430088  RH  070%=      5-min Rain = 0
KST3 110945Z 21008KT 14/09 A3023 RMK A01 T01430088  RH  070%=      5-min Rain = 0
KST3 110946Z 21009KT 14/09 A3023 RMK A01 T01420088  RH  070%=      5-min Rain = 0
KST3 110947Z 21008KT 14/09 A3023 RMK A01 T01430088  RH  070%=      5-min Rain = 0
KST3 110948Z 21008KT 14/09 A3023 RMK A01 T01430088  RH  069%=      5-min Rain = 0
KST3 110949Z 20009KT 14/09 A3023 RMK A01 T01440089  RH  069%=      5-min Rain = 0
KST3 110950Z 20009KT 15/09 A3023 RMK A01 T01450089  RH  069%=      5-min Rain = 0
KST3 110951Z 20009KT 15/09 A3023 RMK A01 T01460089  RH  069%=      5-min Rain = 0
KST3 110952Z 20009KT 15/09 A3023 RMK A01 T01470089  RH  068%=      5-min Rain = 0
KST3 110953Z 20009KT 15/09 A3023 RMK A01 T01470089  RH  068%=      5-min Rain = 0
KST3 110954Z 20010KT 15/09 A3023 RMK A01 T01480089  RH  068%=      5-min Rain = 0
KST3 110955Z 20010KT 15/09 A3023 RMK A01 T01490089  RH  067%=      5-min Rain = 0
KST3 110956Z 20010KT 15/09 A3023 RMK A01 T01500090  RH  067%=      5-min Rain = 0
KST3 110957Z 20010KT 15/09 A3023 RMK A01 T01520090  RH  066%=      5-min Rain = 0
KST3 110958Z 20009KT 15/09 A3022 RMK A01 T01530090  RH  066%=      5-min Rain = 0
KST3 110959Z 20009KT 15/09 A3022 RMK A01 T01530090  RH  066%=      5-min Rain = 0
KST3 111000Z 20009KT 15/09 A3022 RMK A01 T01530090  RH  066%=      5-min Rain = 0
KST3 111001Z 20009KT 15/09 A3022 RMK A01 T01530090  RH  066%=      5-min Rain = 0
KST3 111002Z 20009KT 15/09 A3022 RMK A01 T01530090  RH  066%=      5-min Rain = 0
KST3 111003Z 20008KT 15/09 A3022 RMK A01 T01530090  RH  066%=      5-min Rain = 0
KST3 111004Z 20008KT 15/09 A3022 RMK A01 T01520089  RH  066%=      5-min Rain = 0
KST3 111005Z 20008KT 15/09 A3023 RMK A01 T01520089  RH  066%=      5-min Rain = 0
KST3 111006Z 20008KT 15/09 A3023 RMK A01 T01510089  RH  066%=      5-min Rain = 0
KST3 111007Z 20008KT 15/09 A3023 RMK A01 T01500089  RH  067%=      5-min Rain = 0
KST3 111008Z 20008KT 15/09 A3023 RMK A01 T01490089  RH  067%=      5-min Rain = 0
KST3 111009Z 20007KT 15/09 A3023 RMK A01 T01480088  RH  067%=      5-min Rain = 0
KST3 111010Z 20008KT 15/09 A3023 RMK A01 T01470089  RH  068%=      5-min Rain = 0
KST3 111011Z 20008KT 15/09 A3023 RMK A01 T01460089  RH  068%=      5-min Rain = 0
KST3 111012Z 20008KT 15/09 A3022 RMK A01 T01460089  RH  069%=      5-min Rain = 0
KST3 111013Z 20008KT 15/09 A3022 RMK A01 T01460089  RH  069%=      5-min Rain = 0
KST3 111014Z 20008KT 15/09 A3022 RMK A01 T01460089  RH  069%=      5-min Rain = 0
KST3 111015Z 20008KT 15/09 A3022 RMK A01 T01460089  RH  069%=      5-min Rain = 0
KST3 111016Z 20008KT 15/09 A3022 RMK A01 T01450089  RH  069%=      5-min Rain = 0
KST3 111017Z 20008KT 15/09 A3022 RMK A01 T01450089  RH  069%=      5-min Rain = 0
KST3 111018Z 20008KT 15/09 A3022 RMK A01 T01450089  RH  069%=      5-min Rain = 0
KST3 111019Z 20008KT 14/09 A3022 RMK A01 T01440088  RH  069%=      5-min Rain = 0
KST3 111020Z 20008KT 14/09 A3022 RMK A01 T01430088  RH  069%=      5-min Rain = 0
KST3 111021Z 20008KT 14/09 A3022 RMK A01 T01430088  RH  070%=      5-min Rain = 0
KST3 111022Z 20008KT 14/09 A3022 RMK A01 T01420088  RH  070%=      5-min Rain = 0
KST3 111023Z 20008KT 14/09 A3022 RMK A01 T01420088  RH  070%=      5-min Rain = 0
KST3 111024Z 20008KT 14/09 A3022 RMK A01 T01410087  RH  070%=      5-min Rain = 0
KST3 111025Z 20008KT 14/09 A3022 RMK A01 T01400087  RH  071%=      5-min Rain = 0
KST3 111026Z 21008KT 14/09 A3022 RMK A01 T01380087  RH  071%=      5-min Rain = 0
KST3 111027Z 21008KT 14/09 A3022 RMK A01 T01370087  RH  072%=      5-min Rain = 0
KST3 111028Z 21008KT 14/09 A3023 RMK A01 T01360087  RH  072%=      5-min Rain = 0
KST3 111029Z 21007KT 14/09 A3023 RMK A01 T01350087  RH  072%=      5-min Rain = 0
KST3 111030Z 21007KT 14/09 A3023 RMK A01 T01350087  RH  073%=      5-min Rain = 0
KST3 111031Z 21007KT 13/09 A3023 RMK A01 T01340087  RH  073%=      5-min Rain = 0
KST3 111032Z 21007KT 13/09 A3023 RMK A01 T01330086  RH  073%=      5-min Rain = 0
KST3 111033Z 21007KT 13/09 A3023 RMK A01 T01320086  RH  074%=      5-min Rain = 0
KST3 111034Z 22008KT 13/09 A3023 RMK A01 T01320087  RH  074%=      5-min Rain = 0
KST3 111035Z 22008KT 13/09 A3022 RMK A01 T01320087  RH  074%=      5-min Rain = 0
KST3 111036Z 22007KT 13/09 A3022 RMK A01 T01320087  RH  074%=      5-min Rain = 0
KST3 111037Z 22008KT 13/09 A3022 RMK A01 T01330088  RH  074%=      5-min Rain = 0
KST3 111038Z 22008KT 13/09 A3022 RMK A01 T01330087  RH  074%=      5-min Rain = 0
KST3 111039Z 22008KT 13/09 A3022 RMK A01 T01330088  RH  074%=      5-min Rain = 0
KST3 111040Z 22007KT 13/09 A3022 RMK A01 T01330088  RH  074%=      5-min Rain = 0
KST3 111041Z 22007KT 13/09 A3022 RMK A01 T01340089  RH  074%=      5-min Rain = 0
KST3 111042Z 22007KT 13/09 A3022 RMK A01 T01340089  RH  074%=      5-min Rain = 0
KST3 111043Z 22007KT 13/09 A3022 RMK A01 T01340088  RH  074%=      5-min Rain = 0
KST3 111044Z 22007KT 14/09 A3022 RMK A01 T01350089  RH  074%=      5-min Rain = 0
KST3 111045Z 22007KT 14/09 A3022 RMK A01 T01350088  RH  074%=      5-min Rain = 0
KST3 111046Z 23007KT 14/09 A3022 RMK A01 T01350089  RH  074%=      5-min Rain = 0
KST3 111047Z 23007KT 14/09 A3022 RMK A01 T01350088  RH  074%=      5-min Rain = 0
KST3 111048Z 23008KT 13/09 A3022 RMK A01 T01340088  RH  074%=      5-min Rain = 0
KST3 111049Z 23008KT 13/09 A3022 RMK A01 T01340089  RH  074%=      5-min Rain = 0
KST3 111050Z 23008KT 13/09 A3022 RMK A01 T01340088  RH  074%=      5-min Rain = 0
KST3 111051Z 23008KT 13/09 A3023 RMK A01 T01340088  RH  074%=      5-min Rain = 0
KST3 111052Z 23008KT 14/09 A3023 RMK A01 T01350089  RH  074%=      5-min Rain = 0
KST3 111053Z 22008KT 14/09 A3023 RMK A01 T01360089  RH  074%=      5-min Rain = 0
KST3 111054Z 22008KT 14/09 A3023 RMK A01 T01370090  RH  073%=      5-min Rain = 0
KST3 111055Z 23008KT 14/09 A3023 RMK A01 T01380090  RH  073%=      5-min Rain = 0
KST3 111056Z 22008KT 14/09 A3023 RMK A01 T01390090  RH  073%=      5-min Rain = 0
KST3 111057Z 22008KT 14/09 A3023 RMK A01 T01400091  RH  072%=      5-min Rain = 0
KST3 111058Z 23008KT 14/09 A3023 RMK A01 T01400091  RH  072%=      5-min Rain = 0
KST3 111059Z 23009KT 14/09 A3023 RMK A01 T01400091  RH  072%=      5-min Rain = 0
KST3 111100Z 23009KT 14/09 A3023 RMK A01 T01400091  RH  072%=      5-min Rain = 0
KST3 111101Z 23009KT 14/09 A3023 RMK A01 T01400091  RH  072%=      5-min Rain = 0
KST3 111102Z 23009KT 14/09 A3023 RMK A01 T01410091  RH  072%=      5-min Rain = 0
KST3 111103Z 22010KT 14/09 A3023 RMK A01 T01410092  RH  072%=      5-min Rain = 0
KST3 111104Z 23010KT 14/09 A3023 RMK A01 T01420092  RH  072%=      5-min Rain = 0
KST3 111105Z 22010KT 14/09 A3023 RMK A01 T01430092  RH  072%=      5-min Rain = 0
KST3 111106Z 22010KT 14/09 A3023 RMK A01 T01440093  RH  071%=      5-min Rain = 0
KST3 111107Z 22010KT 14/09 A3023 RMK A01 T01440093  RH  071%=      5-min Rain = 0
KST3 111108Z 22010KT 15/09 A3023 RMK A01 T01460094  RH  071%=      5-min Rain = 0
KST3 111109Z 22010KT 15/09 A3023 RMK A01 T01470094  RH  071%=      5-min Rain = 0
KST3 111110Z 22009KT 15/09 A3023 RMK A01 T01480094  RH  070%=      5-min Rain = 0
KST3 111111Z 22009KT 15/09 A3023 RMK A01 T01480094  RH  070%=      5-min Rain = 0
KST3 111112Z 22009KT 15/09 A3023 RMK A01 T01480094  RH  070%=      5-min Rain = 0
KST3 111113Z 22008KT 15/09 A3023 RMK A01 T01480094  RH  070%=      5-min Rain = 0
KST3 111114Z 22008KT 15/09 A3023 RMK A01 T01480094  RH  070%=      5-min Rain = 0
KST3 111115Z 22008KT 15/09 A3023 RMK A01 T01470093  RH  070%=      5-min Rain = 0
KST3 111116Z 22008KT 15/09 A3023 RMK A01 T01460093  RH  071%=      5-min Rain = 0
KST3 111117Z 22008KT 15/09 A3023 RMK A01 T01450094  RH  071%=      5-min Rain = 0
KST3 111118Z 22008KT 15/09 A3023 RMK A01 T01450094  RH  071%=      5-min Rain = 0
KST3 111119Z 22009KT 15/10 A3023 RMK A01 T01450095  RH  072%=      5-min Rain = 0
KST3 111120Z 22010KT 15/10 A3023 RMK A01 T01450095  RH  072%=      5-min Rain = 0
KST3 111121Z 22010KT 15/10 A3023 RMK A01 T01450095  RH  072%=      5-min Rain = 0
KST3 111122Z 21010KT 15/10 A3023 RMK A01 T01460095  RH  072%=      5-min Rain = 0
KST3 111123Z 21010KT 15/10 A3023 RMK A01 T01450095  RH  072%=      5-min Rain = 0
KST3 111124Z 21010KT 15/10 A3023 RMK A01 T01450096  RH  072%=      5-min Rain = 0
KST3 111125Z 21010KT 15/10 A3023 RMK A01 T01450095  RH  072%=      5-min Rain = 0
KST3 111126Z 21009KT 14/10 A3022 RMK A01 T01440095  RH  072%=      5-min Rain = 0
KST3 111127Z 21009KT 14/10 A3022 RMK A01 T01440095  RH  072%=      5-min Rain = 0
KST3 111128Z 21009KT 14/10 A3022 RMK A01 T01430095  RH  073%=      5-min Rain = 0
KST3 111129Z 21009KT 14/10 A3022 RMK A01 T01420095  RH  073%=      5-min Rain = 0
KST3 111130Z 21009KT 14/10 A3022 RMK A01 T01420095  RH  073%=      5-min Rain = 0
KST3 111131Z 22009KT 14/10 A3022 RMK A01 T01410095  RH  073%=      5-min Rain = 0
KST3 111132Z 22009KT 14/10 A3023 RMK A01 T01410095  RH  074%=      5-min Rain = 0
KST3 111133Z 22009KT 14/10 A3023 RMK A01 T01410095  RH  074%=      5-min Rain = 0
KST3 111134Z 21009KT 14/10 A3023 RMK A01 T01410095  RH  074%=      5-min Rain = 0
KST3 111135Z 21008KT 14/10 A3023 RMK A01 T01410095  RH  074%=      5-min Rain = 0
KST3 111136Z 21008KT 14/10 A3023 RMK A01 T01410095  RH  074%=      5-min Rain = 0
KST3 111137Z 21008KT 14/10 A3023 RMK A01 T01400095  RH  074%=      5-min Rain = 0
KST3 111138Z 21009KT 14/10 A3023 RMK A01 T01400095  RH  075%=      5-min Rain = 0
KST3 111139Z 21009KT 14/10 A3022 RMK A01 T01390095  RH  075%=      5-min Rain = 0
KST3 111140Z 21009KT 14/10 A3022 RMK A01 T01390095  RH  075%=      5-min Rain = 0
KST3 111141Z 21009KT 14/10 A3022 RMK A01 T01380095  RH  075%=      5-min Rain = 0
KST3 111142Z 21009KT 14/10 A3022 RMK A01 T01380095  RH  075%=      5-min Rain = 0
KST3 111143Z 21009KT 14/09 A3022 RMK A01 T01380094  RH  075%=      5-min Rain = 0
KST3 111144Z 21009KT 14/09 A3022 RMK A01 T01380094  RH  075%=      5-min Rain = 0
KST3 111145Z 21009KT 14/09 A3022 RMK A01 T01370094  RH  075%=      5-min Rain = 0
KST3 111146Z 21009KT 14/09 A3022 RMK A01 T01370094  RH  075%=      5-min Rain = 0
KST3 111147Z 21009KT 14/09 A3022 RMK A01 T01370094  RH  075%=      5-min Rain = 0
KST3 111148Z 22009KT 14/09 A3022 RMK A01 T01370094  RH  075%=      5-min Rain = 0
KST3 111149Z 22009KT 14/09 A3022 RMK A01 T01370094  RH  075%=      5-min Rain = 0
KST3 111150Z 22009KT 14/09 A3022 RMK A01 T01370094  RH  075%=      5-min Rain = 0
KST3 111151Z 22009KT 14/09 A3022 RMK A01 T01380094  RH  075%=      5-min Rain = 0
KST3 111152Z 22009KT 14/09 A3022 RMK A01 T01380094  RH  075%=      5-min Rain = 0
KST3 111153Z 22009KT 14/09 A3022 RMK A01 T01380094  RH  074%=      5-min Rain = 0
KST3 111154Z 22009KT 14/09 A3022 RMK A01 T01390094  RH  074%=      5-min Rain = 0
KST3 111155Z 22009KT 14/09 A3022 RMK A01 T01390093  RH  074%=      5-min Rain = 0
KST3 111156Z 22009KT 14/09 A3022 RMK A01 T01400093  RH  073%=      5-min Rain = 0
KST3 111157Z 22009KT 14/09 A3022 RMK A01 T01400093  RH  073%=      5-min Rain = 0
KST3 111158Z 22009KT 14/09 A3022 RMK A01 T01410092  RH  073%=      5-min Rain = 0
KST3 111159Z 22009KT 14/09 A3023 RMK A01 T01410092  RH  072%=      5-min Rain = 0
KST3 111200Z 22009KT 14/09 A3023 RMK A01 T01420092  RH  072%=      5-min Rain = 0
KST3 111201Z 22009KT 14/09 A3023 RMK A01 T01420092  RH  072%=      5-min Rain = 0
KST3 111202Z 22009KT 14/09 A3023 RMK A01 T01410092  RH  072%=      5-min Rain = 0
KST3 111203Z 21009KT 14/09 A3023 RMK A01 T01410092  RH  072%=      5-min Rain = 0
KST3 111204Z 21009KT 14/09 A3023 RMK A01 T01400092  RH  073%=      5-min Rain = 0
KST3 111205Z 21009KT 14/09 A3023 RMK A01 T01400092  RH  073%=      5-min Rain = 0
KST3 111206Z 21009KT 14/09 A3023 RMK A01 T01390092  RH  073%=      5-min Rain = 0
KST3 111207Z 21009KT 14/09 A3023 RMK A01 T01390091  RH  073%=      5-min Rain = 0
KST3 111208Z 21009KT 14/09 A3023 RMK A01 T01390092  RH  073%=      5-min Rain = 0
KST3 111209Z 21009KT 14/09 A3023 RMK A01 T01380092  RH  073%=      5-min Rain = 0
KST3 111210Z 21009KT 14/09 A3023 RMK A01 T01380091  RH  073%=      5-min Rain = 0
KST3 111211Z 21008KT 14/09 A3023 RMK A01 T01370091  RH  074%=      5-min Rain = 0
KST3 111212Z 21008KT 14/09 A3023 RMK A01 T01370091  RH  074%=      5-min Rain = 0
KST3 111213Z 21008KT 14/09 A3023 RMK A01 T01360091  RH  074%=      5-min Rain = 0
KST3 111214Z 21008KT 14/09 A3023 RMK A01 T01360091  RH  074%=      5-min Rain = 0
KST3 111215Z 21008KT 14/09 A3023 RMK A01 T01350091  RH  075%=      5-min Rain = 0
KST3 111216Z 21008KT 13/09 A3023 RMK A01 T01340091  RH  075%=      5-min Rain = 0
KST3 111217Z 21008KT 13/09 A3023 RMK A01 T01340091  RH  075%=      5-min Rain = 0
KST3 111218Z 21008KT 13/09 A3023 RMK A01 T01340091  RH  075%=      5-min Rain = 0
KST3 111219Z 21008KT 13/09 A3023 RMK A01 T01340091  RH  075%=      5-min Rain = 0
KST3 111220Z 21007KT 13/09 A3023 RMK A01 T01340091  RH  075%=      5-min Rain = 0
KST3 111221Z 21007KT 13/09 A3023 RMK A01 T01340091  RH  075%=      5-min Rain = 0
KST3 111222Z 21007KT 13/09 A3023 RMK A01 T01340091  RH  075%=      5-min Rain = 0
KST3 111223Z 21007KT 13/09 A3023 RMK A01 T01340091  RH  075%=      5-min Rain = 0
KST3 111224Z 21007KT 13/09 A3023 RMK A01 T01330090  RH  075%=      5-min Rain = 0
KST3 111225Z 21007KT 13/09 A3023 RMK A01 T01320090  RH  075%=      5-min Rain = 0
KST3 111226Z 21007KT 13/09 A3023 RMK A01 T01310089  RH  076%=      5-min Rain = 0
KST3 111227Z 21007KT 13/09 A3023 RMK A01 T01300090  RH  076%=      5-min Rain = 0
KST3 111228Z 21007KT 13/09 A3023 RMK A01 T01300090  RH  077%=      5-min Rain = 0
KST3 111229Z 21007KT 13/09 A3023 RMK A01 T01300090  RH  077%=      5-min Rain = 0
KST3 111230Z 20007KT 13/09 A3023 RMK A01 T01290090  RH  077%=      5-min Rain = 0
KST3 111231Z 20007KT 13/09 A3023 RMK A01 T01300090  RH  077%=      5-min Rain = 0
KST3 111232Z 20007KT 13/09 A3023 RMK A01 T01300090  RH  077%=      5-min Rain = 0
KST3 111233Z 20007KT 13/09 A3023 RMK A01 T01320091  RH  076%=      5-min Rain = 0
KST3 111234Z 20007KT 13/09 A3024 RMK A01 T01330091  RH  076%=      5-min Rain = 0
KST3 111235Z 20007KT 13/09 A3024 RMK A01 T01340092  RH  075%=      5-min Rain = 0
KST3 111236Z 20007KT 14/09 A3024 RMK A01 T01360092  RH  075%=      5-min Rain = 0
KST3 111237Z 20007KT 14/09 A3024 RMK A01 T01380092  RH  074%=      5-min Rain = 0
KST3 111238Z 20007KT 14/09 A3024 RMK A01 T01390092  RH  073%=      5-min Rain = 0
KST3 111239Z 20007KT 14/09 A3024 RMK A01 T01390092  RH  073%=      5-min Rain = 0
KST3 111240Z 20007KT 14/09 A3024 RMK A01 T01390092  RH  073%=      5-min Rain = 0
KST3 111241Z 21007KT 14/09 A3024 RMK A01 T01380091  RH  073%=      5-min Rain = 0
KST3 111242Z 21007KT 14/09 A3024 RMK A01 T01360090  RH  074%=      5-min Rain = 0
KST3 111243Z 21007KT 13/09 A3024 RMK A01 T01340090  RH  075%=      5-min Rain = 0
KST3 111244Z 21007KT 13/09 A3024 RMK A01 T01320089  RH  075%=      5-min Rain = 0
KST3 111245Z 21008KT 13/09 A3024 RMK A01 T01300089  RH  076%=      5-min Rain = 0
KST3 111246Z 21008KT 13/09 A3024 RMK A01 T01290089  RH  077%=      5-min Rain = 0
KST3 111247Z 21008KT 13/09 A3024 RMK A01 T01280089  RH  077%=      5-min Rain = 0
KST3 111248Z 21008KT 13/09 A3023 RMK A01 T01270089  RH  077%=      5-min Rain = 0
KST3 111249Z 21009KT 13/09 A3023 RMK A01 T01270089  RH  078%=      5-min Rain = 0
KST3 111250Z 21009KT 13/09 A3023 RMK A01 T01270089  RH  078%=      5-min Rain = 0
KST3 111251Z 21009KT 13/09 A3023 RMK A01 T01280090  RH  078%=      5-min Rain = 0
KST3 111252Z 21009KT 13/09 A3023 RMK A01 T01280091  RH  078%=      5-min Rain = 0
KST3 111253Z 21008KT 13/09 A3023 RMK A01 T01290092  RH  078%=      5-min Rain = 0
KST3 111254Z 21008KT 13/09 A3023 RMK A01 T01300092  RH  078%=      5-min Rain = 0
KST3 111255Z 21008KT 13/09 A3023 RMK A01 T01320093  RH  077%=      5-min Rain = 0
KST3 111256Z 21008KT 13/09 A3023 RMK A01 T01330094  RH  077%=      5-min Rain = 0
KST3 111257Z 21008KT 13/09 A3023 RMK A01 T01340094  RH  077%=      5-min Rain = 0
KST3 111258Z 21008KT 14/10 A3023 RMK A01 T01360095  RH  076%=      5-min Rain = 0
KST3 111259Z 21008KT 14/10 A3023 RMK A01 T01370095  RH  076%=      5-min Rain = 0
KST3 111300Z 21008KT 14/10 A3023 RMK A01 T01380095  RH  075%=      5-min Rain = 0
KST3 111301Z 21008KT 14/10 A3023 RMK A01 T01390095  RH  075%=      5-min Rain = 0
KST3 111302Z 21008KT 14/10 A3023 RMK A01 T01390095  RH  075%=      5-min Rain = 0
KST3 111303Z 21008KT 14/10 A3023 RMK A01 T01400095  RH  074%=      5-min Rain = 0
KST3 111304Z 21008KT 14/10 A3023 RMK A01 T01410095  RH  074%=      5-min Rain = 0
KST3 111305Z 21009KT 14/10 A3023 RMK A01 T01420095  RH  073%=      5-min Rain = 0
KST3 111306Z 21008KT 14/10 A3023 RMK A01 T01430095  RH  073%=      5-min Rain = 0
KST3 111307Z 21008KT 14/10 A3023 RMK A01 T01440095  RH  072%=      5-min Rain = 0
KST3 111308Z 21008KT 14/10 A3023 RMK A01 T01440095  RH  072%=      5-min Rain = 0
KST3 111309Z 21008KT 15/10 A3023 RMK A01 T01450095  RH  072%=      5-min Rain = 0
KST3 111310Z 21008KT 15/10 A3023 RMK A01 T01460095  RH  072%=      5-min Rain = 0
KST3 111311Z 21008KT 15/10 A3023 RMK A01 T01470095  RH  071%=      5-min Rain = 0
KST3 111312Z 21008KT 15/10 A3023 RMK A01 T01480095  RH  071%=      5-min Rain = 0
KST3 111313Z 21008KT 15/10 A3023 RMK A01 T01480095  RH  070%=      5-min Rain = 0
KST3 111314Z 21008KT 15/10 A3023 RMK A01 T01490095  RH  070%=      5-min Rain = 0
KST3 111315Z 21007KT 15/10 A3024 RMK A01 T01500095  RH  070%=      5-min Rain = 0
KST3 111316Z 21008KT 15/10 A3024 RMK A01 T01500095  RH  070%=      5-min Rain = 0
KST3 111317Z 21008KT 15/10 A3024 RMK A01 T01510095  RH  069%=      5-min Rain = 0
KST3 111318Z 21008KT 15/10 A3024 RMK A01 T01520095  RH  069%=      5-min Rain = 0
KST3 111319Z 20007KT 15/10 A3024 RMK A01 T01520095  RH  069%=      5-min Rain = 0
KST3 111320Z 20008KT 15/10 A3024 RMK A01 T01520095  RH  069%=      5-min Rain = 0
KST3 111321Z 20008KT 15/10 A3024 RMK A01 T01530095  RH  068%=      5-min Rain = 0
KST3 111322Z 21008KT 15/10 A3024 RMK A01 T01530095  RH  068%=      5-min Rain = 0
KST3 111323Z 20008KT 15/10 A3024 RMK A01 T01540095  RH  068%=      5-min Rain = 0
KST3 111324Z 20008KT 15/10 A3024 RMK A01 T01540095  RH  068%=      5-min Rain = 0
KST3 111325Z 20008KT 16/09 A3023 RMK A01 T01550094  RH  067%=      5-min Rain = 0
KST3 111326Z 20008KT 16/09 A3023 RMK A01 T01550094  RH  067%=      5-min Rain = 0
KST3 111327Z 20007KT 16/10 A3023 RMK A01 T01560095  RH  067%=      5-min Rain = 0
KST3 111328Z 20007KT 16/10 A3023 RMK A01 T01560095  RH  067%=      5-min Rain = 0
KST3 111329Z 20007KT 16/10 A3023 RMK A01 T01560095  RH  067%=      5-min Rain = 0
KST3 111330Z 20008KT 16/10 A3023 RMK A01 T01570095  RH  067%=      5-min Rain = 0
KST3 111331Z 20008KT 16/10 A3023 RMK A01 T01570095  RH  066%=      5-min Rain = 0
KST3 111332Z 20008KT 16/10 A3023 RMK A01 T01580095  RH  066%=      5-min Rain = 0
KST3 111333Z 20008KT 16/10 A3023 RMK A01 T01580096  RH  066%=      5-min Rain = 0
KST3 111334Z 20008KT 16/10 A3023 RMK A01 T01590096  RH  066%=      5-min Rain = 0
KST3 111335Z 20007KT 16/10 A3023 RMK A01 T01590096  RH  066%=      5-min Rain = 0
KST3 111336Z 20007KT 16/10 A3023 RMK A01 T01600096  RH  066%=      5-min Rain = 0
KST3 111337Z 20007KT 16/10 A3023 RMK A01 T01600096  RH  066%=      5-min Rain = 0
KST3 111338Z 20008KT 16/10 A3023 RMK A01 T01610097  RH  066%=      5-min Rain = 0
KST3 111339Z 20007KT 16/10 A3023 RMK A01 T01610096  RH  065%=      5-min Rain = 0
KST3 111340Z 20008KT 16/10 A3023 RMK A01 T01610096  RH  066%=      5-min Rain = 0
KST3 111341Z 20008KT 16/10 A3023 RMK A01 T01610097  RH  066%=      5-min Rain = 0
KST3 111342Z 20007KT 16/10 A3023 RMK A01 T01620098  RH  065%=      5-min Rain = 0
KST3 111343Z 20007KT 16/10 A3023 RMK A01 T01640099  RH  065%=      5-min Rain = 0
KST3 111344Z 20007KT 17/10 A3023 RMK A01 T01650098  RH  065%=      5-min Rain = 0
KST3 111345Z 20009KT 17/10 A3023 RMK A01 T01660098  RH  064%=      5-min Rain = 0
KST3 111346Z 21009KT 17/10 A3023 RMK A01 T01660097  RH  064%=      5-min Rain = 0
KST3 111347Z 21009KT 17/10 A3023 RMK A01 T01660097  RH  064%=      5-min Rain = 0
KST3 111348Z 20009KT 17/10 A3023 RMK A01 T01660097  RH  064%=      5-min Rain = 0
KST3 111349Z 21010KT 17/10 A3023 RMK A01 T01670097  RH  063%=      5-min Rain = 0
KST3 111350Z 21009KT 17/10 A3023 RMK A01 T01670097  RH  063%=      5-min Rain = 0
KST3 111351Z 20009KT 17/10 A3023 RMK A01 T01680098  RH  063%=      5-min Rain = 0
KST3 111352Z 21010KT 17/10 A3023 RMK A01 T01690097  RH  062%=      5-min Rain = 0
KST3 111353Z 21010KT 17/10 A3023 RMK A01 T01700097  RH  062%=      5-min Rain = 0
KST3 111354Z 21010KT 17/10 A3023 RMK A01 T01700096  RH  061%=      5-min Rain = 0
KST3 111355Z 21010KT 17/10 A3023 RMK A01 T01710096  RH  061%=      5-min Rain = 0
KST3 111356Z 21011KT 17/10 A3023 RMK A01 T01720095  RH  061%=      5-min Rain = 0
KST3 111357Z 21011KT 17/10 A3023 RMK A01 T01720095  RH  060%=      5-min Rain = 0
KST3 111358Z 21010KT 17/10 A3023 RMK A01 T01720096  RH  061%=      5-min Rain = 0
KST3 111359Z 21010KT 17/10 A3023 RMK A01 T01730097  RH  061%=      5-min Rain = 0
KST3 111400Z 21011KT 18/10 A3023 RMK A01 T01750097  RH  060%=      5-min Rain = 0
KST3 111401Z 21009KT 18/10 A3023 RMK A01 T01760096  RH  060%=      5-min Rain = 0
KST3 111402Z 21009KT 18/10 A3023 RMK A01 T01770098  RH  060%=      5-min Rain = 0
KST3 111403Z 21010KT 18/10 A3023 RMK A01 T01790097  RH  059%=      5-min Rain = 0
KST3 111404Z 22011KT 18/10 A3023 RMK A01 T01810097  RH  058%=      5-min Rain = 0
KST3 111405Z 21009KT 18/10 A3023 RMK A01 T01820096  RH  057%=      5-min Rain = 0
KST3 111406Z 21011KT 18/10 A3023 RMK A01 T01830096  RH  057%=      5-min Rain = 0
KST3 111407Z 21011KT 18/10 A3023 RMK A01 T01830096  RH  057%=      5-min Rain = 0
KST3 111408Z 21011KT 18/10 A3023 RMK A01 T01840096  RH  057%=      5-min Rain = 0
KST3 111409Z 22009KT 18/10 A3023 RMK A01 T01840096  RH  056%=      5-min Rain = 0
KST3 111410Z 22013KT 19/10 A3023 RMK A01 T01850096  RH  056%=      5-min Rain = 0
KST3 111411Z 22012KT 19/10 A3023 RMK A01 T01870095  RH  055%=      5-min Rain = 0
KST3 111412Z 22013KT 19/09 A3023 RMK A01 T01880094  RH  054%=      5-min Rain = 0
KST3 111413Z 21012KT 19/09 A3023 RMK A01 T01890094  RH  054%=      5-min Rain = 0
KST3 111414Z 21012KT 19/09 A3023 RMK A01 T01900094  RH  054%=      5-min Rain = 0
KST3 111415Z 21014KT 19/09 A3023 RMK A01 T01900094  RH  053%=      5-min Rain = 0
KST3 111416Z 21012KT 19/09 A3023 RMK A01 T01900093  RH  053%=      5-min Rain = 0
KST3 111417Z 21012KT 19/10 A3023 RMK A01 T01900095  RH  054%=      5-min Rain = 0
KST3 111418Z 21013KT 19/09 A3023 RMK A01 T01910094  RH  053%=      5-min Rain = 0
KST3 111419Z 21012KT 19/10 A3023 RMK A01 T01910095  RH  053%=      5-min Rain = 0
KST3 111420Z 21010KT 19/10 A3023 RMK A01 T01920096  RH  054%=      5-min Rain = 0
KST3 111421Z 21013KT 19/10 A3023 RMK A01 T01930095  RH  053%=      5-min Rain = 0
KST3 111422Z 21012KT 19/09 A3023 RMK A01 T01920094  RH  053%=      5-min Rain = 0
KST3 111423Z 21012KT 19/10 A3023 RMK A01 T01920095  RH  053%=      5-min Rain = 0
KST3 111424Z 22011KT 19/10 A3023 RMK A01 T01930096  RH  053%=      5-min Rain = 0
KST3 111425Z 22011KT 19/10 A3023 RMK A01 T01940097  RH  053%=      5-min Rain = 0
KST3 111426Z 23012KT 20/10 A3023 RMK A01 T01960097  RH  053%=      5-min Rain = 0
KST3 111427Z 22011KT 20/10 A3023 RMK A01 T01960095  RH  052%=      5-min Rain = 0
KST3 111428Z 22010KT 20/10 A3023 RMK A01 T01960097  RH  053%=      5-min Rain = 0
KST3 111429Z 22010KT 20/10 A3023 RMK A01 T01960097  RH  053%=      5-min Rain = 0
KST3 111430Z 22013KT 20/10 A3023 RMK A01 T01960097  RH  053%=      5-min Rain = 0
KST3 111431Z 22013KT 20/10 A3023 RMK A01 T01950096  RH  053%=      5-min Rain = 0
KST3 111432Z 22013KT 19/10 A3023 RMK A01 T01940095  RH  053%=      5-min Rain = 0
KST3 111433Z 22012KT 19/10 A3023 RMK A01 T01940096  RH  053%=      5-min Rain = 0
KST3 111434Z 22011KT 19/10 A3023 RMK A01 T01940097  RH  053%=      5-min Rain = 0
KST3 111435Z 22011KT 20/10 A3023 RMK A01 T01950097  RH  053%=      5-min Rain = 0
KST3 111436Z 22012KT 20/10 A3023 RMK A01 T01960097  RH  053%=      5-min Rain = 0
KST3 111437Z 22013KT 20/10 A3023 RMK A01 T01960098  RH  053%=      5-min Rain = 0
KST3 111438Z 22012KT 20/10 A3023 RMK A01 T01950098  RH  054%=      5-min Rain = 0
KST3 111439Z 22013KT 20/10 A3023 RMK A01 T01950098  RH  054%=      5-min Rain = 0
KST3 111440Z 23011KT 20/10 A3023 RMK A01 T01950098  RH  054%=      5-min Rain = 0
KST3 111441Z 22012KT 20/10 A3023 RMK A01 T01950099  RH  054%=      5-min Rain = 0
KST3 111442Z 22013KT 20/10 A3023 RMK A01 T01970098  RH  053%=      5-min Rain = 0
KST3 111443Z 22013KT 20/10 A3023 RMK A01 T01970098  RH  053%=      5-min Rain = 0
KST3 111444Z 22012KT 20/10 A3023 RMK A01 T01970100  RH  053%=      5-min Rain = 0
KST3 111445Z 21012KT 20/10 A3023 RMK A01 T01970100  RH  053%=      5-min Rain = 0
KST3 111446Z 21012KT 20/10 A3023 RMK A01 T01990100  RH  053%=      5-min Rain = 0
KST3 111447Z 22013KT 20/10 A3023 RMK A01 T01990099  RH  053%=      5-min Rain = 0
KST3 111448Z 22013KT 20/10 A3023 RMK A01 T01990099  RH  052%=      5-min Rain = 0
KST3 111449Z 22012KT 20/10 A3023 RMK A01 T02000099  RH  052%=      5-min Rain = 0
KST3 111450Z 21010KT 20/10 A3023 RMK A01 T02000100  RH  052%=      5-min Rain = 0
KST3 111451Z 21012KT 20/10 A3023 RMK A01 T02020101  RH  052%=      5-min Rain = 0
KST3 111452Z 22012KT 20/10 A3023 RMK A01 T02030101  RH  052%=      5-min Rain = 0
KST3 111453Z 22014KT 20/10 A3023 RMK A01 T02030101  RH  052%=      5-min Rain = 0
KST3 111454Z 22012KT 20/10 A3023 RMK A01 T02040101  RH  051%=      5-min Rain = 0
KST3 111455Z 22013KT 21/10 A3023 RMK A01 T02060102  RH  051%=      5-min Rain = 0
KST3 111456Z 22014KT 21/10 A3023 RMK A01 T02060101  RH  051%=      5-min Rain = 0
KST3 111457Z 21013KT 21/10 A3023 RMK A01 T02060101  RH  051%=      5-min Rain = 0
KST3 111458Z 22013KT 21/10 A3023 RMK A01 T02080102  RH  051%=      5-min Rain = 0
KST3 111459Z 22013KT 21/10 A3023 RMK A01 T02080101  RH  050%=      5-min Rain = 0
KST3 111500Z 21014KT 21/10 A3023 RMK A01 T02080101  RH  050%=      5-min Rain = 0
KST3 111501Z 21015KT 21/10 A3023 RMK A01 T02080102  RH  050%=      5-min Rain = 0
KST3 111502Z 22012KT 21/10 A3023 RMK A01 T02090102  RH  050%=      5-min Rain = 0
KST3 111503Z 21011KT 21/10 A3023 RMK A01 T02110104  RH  050%=      5-min Rain = 0
KST3 111504Z 22014KT 21/10 A3023 RMK A01 T02140103  RH  049%=      5-min Rain = 0
KST3 111505Z 22012KT 21/10 A3022 RMK A01 T02140101  RH  049%=      5-min Rain = 0
KST3 111506Z 22013KT 21/10 A3022 RMK A01 T02140103  RH  049%=      5-min Rain = 0
KST3 111507Z 22015KT 22/10 A3022 RMK A01 T02150101  RH  048%=      5-min Rain = 0
KST3 111508Z 22014G19KT 22/10 A3022 RMK A01 T02150101  RH  048%=      5-min Rain = 0
KST3 111509Z 22017KT 22/10 A3022 RMK A01 T02160099  RH  047%=      5-min Rain = 0
KST3 111510Z 22018KT 21/10 A3022 RMK A01 T02140098  RH  047%=      5-min Rain = 0
KST3 111511Z 22017KT 21/10 A3022 RMK A01 T02140098  RH  048%=      5-min Rain = 0
KST3 111512Z 22015KT 21/10 A3022 RMK A01 T02140098  RH  048%=      5-min Rain = 0
KST3 111513Z 22016KT 22/10 A3022 RMK A01 T02150099  RH  047%=      5-min Rain = 0
KST3 111514Z 23015KT 22/10 A3022 RMK A01 T02170099  RH  047%=      5-min Rain = 0
KST3 111515Z 23014KT 22/10 A3022 RMK A01 T02190100  RH  047%=      5-min Rain = 0
KST3 111516Z 22016KT 22/10 A3022 RMK A01 T02200100  RH  046%=      5-min Rain = 0
KST3 111517Z 22015KT 22/10 A3022 RMK A01 T02200099  RH  046%=      5-min Rain = 0
KST3 111518Z 22014KT 22/10 A3022 RMK A01 T02200100  RH  046%=      5-min Rain = 0
KST3 111519Z 22014KT 22/10 A3022 RMK A01 T02200100  RH  046%=      5-min Rain = 0
KST3 111520Z 22015KT 22/10 A3022 RMK A01 T02220101  RH  046%=      5-min Rain = 0
KST3 111521Z 22016KT 22/10 A3022 RMK A01 T02230101  RH  046%=      5-min Rain = 0
KST3 111522Z 22015KT 22/10 A3022 RMK A01 T02240100  RH  045%=      5-min Rain = 0
KST3 111523Z 23012G17KT 22/10 A3022 RMK A01 T02230100  RH  046%=      5-min Rain = 0
KST3 111524Z 22013KT 23/10 A3022 RMK A01 T02270103  RH  045%=      5-min Rain = 0
KST3 111525Z 23015KT 23/10 A3022 RMK A01 T02290101  RH  044%=      5-min Rain = 0
KST3 111526Z 24013KT 23/10 A3022 RMK A01 T02270101  RH  045%=      5-min Rain = 0
KST3 111527Z 23014KT 23/10 A3022 RMK A01 T02270101  RH  045%=      5-min Rain = 0
KST3 111528Z 23014KT 23/10 A3022 RMK A01 T02270101  RH  045%=      5-min Rain = 0
KST3 111529Z 22015KT 23/10 A3022 RMK A01 T02270102  RH  045%=      5-min Rain = 0
KST3 111530Z 22014KT 23/10 A3022 RMK A01 T02270101  RH  045%=      5-min Rain = 0
KST3 111531Z 22015KT 23/10 A3022 RMK A01 T02260102  RH  045%=      5-min Rain = 0
KST3 111532Z 22014KT 23/10 A3022 RMK A01 T02260100  RH  045%=      5-min Rain = 0
KST3 111533Z 22015KT 23/10 A3022 RMK A01 T02270101  RH  045%=      5-min Rain = 0
KST3 111534Z 23015KT 23/10 A3022 RMK A01 T02280101  RH  044%=      5-min Rain = 0
KST3 111535Z 22014KT 23/10 A3022 RMK A01 T02270100  RH  045%=      5-min Rain = 0
KST3 111536Z 22013KT 23/10 A3022 RMK A01 T02260101  RH  045%=      5-min Rain = 0
KST3 111537Z 21013KT 23/10 A3022 RMK A01 T02280102  RH  045%=      5-min Rain = 0
KST3 111538Z 21014KT 23/10 A3022 RMK A01 T02280101  RH  045%=      5-min Rain = 0
KST3 111539Z 21012KT 23/10 A3022 RMK A01 T02280101  RH  044%=      5-min Rain = 0
KST3 111540Z 21013KT 23/10 A3022 RMK A01 T02280102  RH  045%=      5-min Rain = 0
KST3 111541Z 21013KT 23/10 A3022 RMK A01 T02300102  RH  044%=      5-min Rain = 0
KST3 111542Z 21012KT 23/10 A3022 RMK A01 T02320102  RH  044%=      5-min Rain = 0
KST3 111543Z 22013KT 23/10 A3022 RMK A01 T02300102  RH  044%=      5-min Rain = 0
KST3 111544Z 22014KT 23/10 A3022 RMK A01 T02300102  RH  044%=      5-min Rain = 0
KST3 111545Z 22013KT 23/10 A3022 RMK A01 T02290102  RH  045%=      5-min Rain = 0
KST3 111546Z 22014KT 23/10 A3022 RMK A01 T02290102  RH  045%=      5-min Rain = 0
KST3 111547Z 22014KT 23/10 A3022 RMK A01 T02290102  RH  044%=      5-min Rain = 0
KST3 111548Z 22013KT 23/10 A3022 RMK A01 T02300102  RH  044%=      5-min Rain = 0
KST3 111549Z 21013KT 23/10 A3022 RMK A01 T02300103  RH  045%=      5-min Rain = 0
KST3 111550Z 21012KT 23/10 A3022 RMK A01 T02330103  RH  044%=      5-min Rain = 0
KST3 111551Z 23012KT 23/10 A3022 RMK A01 T02340104  RH  044%=      5-min Rain = 0
KST3 111552Z 23013KT 24/10 A3022 RMK A01 T02360103  RH  043%=      5-min Rain = 0
KST3 111553Z 23010KT 24/10 A3022 RMK A01 T02360104  RH  043%=      5-min Rain = 0
KST3 111554Z 22011G16KT 24/10 A3022 RMK A01 T02360104  RH  043%=      5-min Rain = 0
KST3 111555Z 22014KT 24/10 A3022 RMK A01 T02370104  RH  043%=      5-min Rain = 0
KST3 111556Z 22014KT 24/10 A3022 RMK A01 T02350103  RH  043%=      5-min Rain = 0
KST3 111557Z 21013KT 23/10 A3022 RMK A01 T02330104  RH  044%=      5-min Rain = 0
KST3 111558Z 22012KT 23/11 A3022 RMK A01 T02330105  RH  044%=      5-min Rain = 0
KST3 111559Z 23011KT 23/10 A3022 RMK A01 T02330104  RH  044%=      5-min Rain = 0
KST3 111600Z 22011KT 24/10 A3022 RMK A01 T02350104  RH  044%=      5-min Rain = 0
KST3 111601Z 22011KT 24/11 A3022 RMK A01 T02350105  RH  044%=      5-min Rain = 0
KST3 111602Z 22009KT 24/11 A3022 RMK A01 T02370107  RH  044%=      5-min Rain = 0
KST3 111603Z 21011KT 24/11 A3022 RMK A01 T02410108  RH  043%=      5-min Rain = 0
KST3 111604Z 21012KT 24/11 A3022 RMK A01 T02420107  RH  042%=      5-min Rain = 0
KST3 111605Z 21009KT 24/11 A3022 RMK A01 T02390105  RH  043%=      5-min Rain = 0
KST3 111606Z 22012KT 24/11 A3022 RMK A01 T02390108  RH  043%=      5-min Rain = 0
KST3 111607Z 23011KT 24/11 A3022 RMK A01 T02440108  RH  042%=      5-min Rain = 0
KST3 111608Z 24009KT 25/11 A3022 RMK A01 T02450107  RH  042%=      5-min Rain = 0
KST3 111609Z 22009KT 25/11 A3022 RMK A01 T02470109  RH  042%=      5-min Rain = 0
KST3 111610Z 23010KT 25/11 A3022 RMK A01 T02520110  RH  041%=      5-min Rain = 0
KST3 111611Z 24011KT 25/11 A3022 RMK A01 T02510107  RH  040%=      5-min Rain = 0
KST3 111612Z 23010KT 25/11 A3022 RMK A01 T02470108  RH  042%=      5-min Rain = 0
KST3 111613Z 24010KT 25/11 A3022 RMK A01 T02480109  RH  042%=      5-min Rain = 0
KST3 111614Z 23010KT 25/11 A3022 RMK A01 T02490106  RH  041%=      5-min Rain = 0
KST3 111615Z 22011KT 25/11 A3022 RMK A01 T02470107  RH  041%=      5-min Rain = 0
KST3 111616Z 22011KT 25/11 A3022 RMK A01 T02470109  RH  042%=      5-min Rain = 0
KST3 111617Z 22010KT 25/11 A3022 RMK A01 T02470109  RH  042%=      5-min Rain = 0
KST3 111618Z 22012KT 25/11 A3022 RMK A01 T02460109  RH  042%=      5-min Rain = 0
KST3 111619Z 23010KT 25/11 A3022 RMK A01 T02460108  RH  042%=      5-min Rain = 0
KST3 111620Z 24009KT 25/11 A3022 RMK A01 T02470109  RH  042%=      5-min Rain = 0
KST3 111621Z 24009G14KT 25/11 A3022 RMK A01 T02490109  RH  041%=      5-min Rain = 0
KST3 111622Z 24014KT 25/11 A3022 RMK A01 T02520109  RH  041%=      5-min Rain = 0
KST3 111623Z 24011KT 25/11 A3022 RMK A01 T02520108  RH  040%=      5-min Rain = 0
KST3 111624Z 23009KT 25/11 A3022 RMK A01 T02510109  RH  041%=      5-min Rain = 0
KST3 111625Z 22011KT 25/11 A3022 RMK A01 T02540112  RH  041%=      5-min Rain = 0
KST3 111626Z 22012KT 26/11 A3022 RMK A01 T02580112  RH  040%=      5-min Rain = 0
KST3 111627Z 24012KT 26/11 A3022 RMK A01 T02580111  RH  040%=      5-min Rain = 0
KST3 111628Z 25008KT 25/11 A3022 RMK A01 T02530109  RH  040%=      5-min Rain = 0
KST3 111629Z 22012KT 25/11 A3022 RMK A01 T02530112  RH  041%=      5-min Rain = 0
KST3 111630Z 22010KT 25/11 A3022 RMK A01 T02540110  RH  040%=      5-min Rain = 0
KST3 111631Z 21012KT 25/11 A3022 RMK A01 T02530110  RH  041%=      5-min Rain = 0
KST3 111632Z 22009KT 25/11 A3022 RMK A01 T02530110  RH  041%=      5-min Rain = 0
KST3 111633Z 22013KT 26/11 A3022 RMK A01 T02560112  RH  040%=      5-min Rain = 0
KST3 111634Z 22012KT 26/11 A3022 RMK A01 T02580110  RH  040%=      5-min Rain = 0
KST3 111635Z 24010KT 26/11 A3022 RMK A01 T02600112  RH  039%=      5-min Rain = 0
KST3 111636Z 24010KT 26/11 A3022 RMK A01 T02640111  RH  038%=      5-min Rain = 0
KST3 111637Z 23009KT 26/11 A3022 RMK A01 T02640109  RH  038%=      5-min Rain = 0
KST3 111638Z 22009KT 26/11 A3022 RMK A01 T02630111  RH  039%=      5-min Rain = 0
KST3 111639Z 22009G16KT 26/11 A3021 RMK A01 T02630112  RH  039%=      5-min Rain = 0
KST3 111640Z 23012KT 27/11 A3021 RMK A01 T02650113  RH  039%=      5-min Rain = 0
KST3 111641Z 24011KT 27/11 A3021 RMK A01 T02690113  RH  038%=      5-min Rain = 0
KST3 111642Z 24010KT 27/11 A3021 RMK A01 T02720112  RH  037%=      5-min Rain = 0
KST3 111643Z 24007KT 27/11 A3021 RMK A01 T02710113  RH  037%=      5-min Rain = 0
KST3 111644Z 23007KT 27/11 A3021 RMK A01 T02710112  RH  037%=      5-min Rain = 0
KST3 111645Z 24011KT 27/11 A3021 RMK A01 T02710112  RH  037%=      5-min Rain = 0
KST3 111646Z 23013KT 27/11 A3021 RMK A01 T02730112  RH  037%=      5-min Rain = 0
KST3 111647Z 23011KT 27/11 A3021 RMK A01 T02730110  RH  036%=      5-min Rain = 0
KST3 111648Z 24011KT 27/11 A3021 RMK A01 T02730108  RH  036%=      5-min Rain = 0
KST3 111649Z 24011KT 27/11 A3021 RMK A01 T02730110  RH  036%=      5-min Rain = 0
KST3 111650Z 25010G18KT 28/11 A3021 RMK A01 T02760108  RH  035%=      5-min Rain = 0
KST3 111651Z 24010G16KT 28/11 A3021 RMK A01 T02760109  RH  035%=      5-min Rain = 0
KST3 111652Z 23010KT 28/11 A3021 RMK A01 T02760107  RH  035%=      5-min Rain = 0
KST3 111653Z 24012KT 28/11 A3021 RMK A01 T02780107  RH  034%=      5-min Rain = 0
KST3 111654Z 24012KT 28/11 A3021 RMK A01 T02790105  RH  034%=      5-min Rain = 0
KST3 111655Z 23012KT 28/11 A3021 RMK A01 T02810105  RH  034%=      5-min Rain = 0
KST3 111656Z 24012KT 28/10 A3021 RMK A01 T02800104  RH  033%=      5-min Rain = 0
KST3 111657Z 24011KT 28/10 A3021 RMK A01 T02790104  RH  034%=      5-min Rain = 0
KST3 111658Z 23012KT 28/10 A3021 RMK A01 T02780104  RH  034%=      5-min Rain = 0
KST3 111659Z 24009G14KT 28/10 A3021 RMK A01 T02750103  RH  034%=      5-min Rain = 0
KST3 111700Z 24011KT 28/11 A3021 RMK A01 T02760105  RH  034%=      5-min Rain = 0
KST3 111701Z 23014KT 28/11 A3021 RMK A01 T02770105  RH  034%=      5-min Rain = 0
KST3 111702Z 24015KT 28/10 A3021 RMK A01 T02780104  RH  034%=      5-min Rain = 0
KST3 111703Z 23012KT 28/10 A3021 RMK A01 T02770104  RH  034%=      5-min Rain = 0
KST3 111704Z 24013KT 28/10 A3021 RMK A01 T02790104  RH  034%=      5-min Rain = 0
KST3 111705Z 24010KT 28/10 A3021 RMK A01 T02770104  RH  034%=      5-min Rain = 0
KST3 111706Z 23010KT 28/11 A3021 RMK A01 T02770105  RH  034%=      5-min Rain = 0
KST3 111707Z 22012KT 28/10 A3021 RMK A01 T02770104  RH  034%=      5-min Rain = 0
KST3 111708Z 22010KT 28/11 A3021 RMK A01 T02760105  RH  034%=      5-min Rain = 0
KST3 111709Z 24009KT 28/11 A3021 RMK A01 T02770106  RH  034%=      5-min Rain = 0
KST3 111710Z 22008KT 28/11 A3021 RMK A01 T02790107  RH  034%=      5-min Rain = 0
KST3 111711Z 21007KT 28/11 A3021 RMK A01 T02820109  RH  034%=      5-min Rain = 0
KST3 111712Z 22008KT 29/11 A3021 RMK A01 T02860110  RH  033%=      5-min Rain = 0
KST3 111713Z 21010KT 29/11 A3021 RMK A01 T02890110  RH  033%=      5-min Rain = 0
KST3 111714Z 21011KT 29/11 A3021 RMK A01 T02910109  RH  032%=      5-min Rain = 0
KST3 111715Z 23012KT 29/11 A3021 RMK A01 T02890108  RH  032%=      5-min Rain = 0
KST3 111716Z 22010KT 29/11 A3021 RMK A01 T02860107  RH  033%=      5-min Rain = 0
KST3 111717Z 21008KT 29/11 A3021 RMK A01 T02850107  RH  033%=      5-min Rain = 0
KST3 111718Z 22008KT 29/11 A3021 RMK A01 T02850107  RH  033%=      5-min Rain = 0
KST3 111719Z 22010KT 29/11 A3021 RMK A01 T02870107  RH  033%=      5-min Rain = 0
KST3 111720Z 22009KT 29/11 A3021 RMK A01 T02890106  RH  032%=      5-min Rain = 0
KST3 111721Z 22011KT 29/11 A3021 RMK A01 T02880106  RH  032%=      5-min Rain = 0
KST3 111722Z 22012KT 29/11 A3021 RMK A01 T02870105  RH  032%=      5-min Rain = 0
KST3 111723Z 23010KT 29/11 A3021 RMK A01 T02850106  RH  033%=      5-min Rain = 0
KST3 111724Z 23011KT 29/11 A3021 RMK A01 T02860107  RH  033%=      5-min Rain = 0
KST3 111725Z 22009KT 29/11 A3021 RMK A01 T02870107  RH  033%=      5-min Rain = 0
KST3 111726Z 22012KT 29/11 A3021 RMK A01 T02870107  RH  033%=      5-min Rain = 0
KST3 111727Z 23013KT 29/11 A3021 RMK A01 T02880106  RH  032%=      5-min Rain = 0
KST3 111728Z 23011KT 29/11 A3021 RMK A01 T02890107  RH  032%=      5-min Rain = 0
KST3 111729Z 23009KT 29/11 A3021 RMK A01 T02890106  RH  032%=      5-min Rain = 0
KST3 111730Z 24009KT 29/11 A3021 RMK A01 T02900107  RH  032%=      5-min Rain = 0
KST3 111731Z 24012KT 29/11 A3021 RMK A01 T02930106  RH  031%=      5-min Rain = 0
KST3 111732Z 23013KT 29/11 A3021 RMK A01 T02930106  RH  031%=      5-min Rain = 0
KST3 111733Z 25009KT 29/11 A3021 RMK A01 T02930106  RH  031%=      5-min Rain = 0
KST3 111734Z 25009KT 29/11 A3021 RMK A01 T02910106  RH  032%=      5-min Rain = 0
KST3 111735Z 23009KT 29/11 A3021 RMK A01 T02920105  RH  031%=      5-min Rain = 0
KST3 111736Z 22011KT 29/11 A302 RMK A01 T02930107  RH  032%=      5-min Rain = 0
KST3 111737Z 22009KT 30/11 A302 RMK A01 T02950105  RH  031%=      5-min Rain = 0
KST3 111738Z 23010KT 29/11 A302 RMK A01 T02940106  RH  031%=      5-min Rain = 0
KST3 111739Z 24010KT 29/11 A302 RMK A01 T02940105  RH  031%=      5-min Rain = 0
KST3 111740Z 23004KT 29/10 A302 RMK A01 T02930104  RH  031%=      5-min Rain = 0
KST3 111741Z 24012KT 29/11 A302 RMK A01 T02900106  RH  032%=      5-min Rain = 0
KST3 111742Z 24011KT 29/11 A302 RMK A01 T02900106  RH  032%=      5-min Rain = 0
KST3 111743Z 25011KT 29/11 A302 RMK A01 T02940107  RH  031%=      5-min Rain = 0
KST3 111744Z 24008KT 29/11 A302 RMK A01 T02940107  RH  031%=      5-min Rain = 0
KST3 111745Z 24008KT 29/11 A302 RMK A01 T02940106  RH  031%=      5-min Rain = 0
KST3 111746Z 25009KT 29/11 A302 RMK A01 T02930106  RH  031%=      5-min Rain = 0
KST3 111747Z 26008KT 29/11 A302 RMK A01 T02930106  RH  031%=      5-min Rain = 0
KST3 111748Z 27007KT 29/11 A302 RMK A01 T02920105  RH  031%=      5-min Rain = 0
KST3 111749Z 27006KT 29/11 A302 RMK A01 T02930106  RH  031%=      5-min Rain = 0
KST3 111750Z 24010KT 29/11 A302 RMK A01 T02920108  RH  032%=      5-min Rain = 0
KST3 111751Z 24009KT 30/11 A302 RMK A01 T02970108  RH  031%=      5-min Rain = 0
KST3 111752Z 24009KT 30/11 A302 RMK A01 T02990108  RH  031%=      5-min Rain = 0
KST3 111753Z 25007G12KT 30/11 A302 RMK A01 T02970106  RH  031%=      5-min Rain = 0
KST3 111754Z 24010KT 29/11 A302 RMK A01 T02940107  RH  031%=      5-min Rain = 0
KST3 111755Z 23006KT 29/11 A302 RMK A01 T02930106  RH  031%=      5-min Rain = 0
KST3 111756Z 23007KT 29/11 A302 RMK A01 T02910106  RH  032%=      5-min Rain = 0
KST3 111757Z 24006KT 29/11 A302 RMK A01 T02920105  RH  031%=      5-min Rain = 0
KST3 111758Z 23007G13KT 29/11 A302 RMK A01 T02910105  RH  032%=      5-min Rain = 0
KST3 111759Z 23007KT 29/11 A302 RMK A01 T02920106  RH  032%=      5-min Rain = 0
KST3 111800Z 22010KT 30/11 A302 RMK A01 T02950108  RH  031%=      5-min Rain = 0
KST3 111801Z 24007KT 30/11 A302 RMK A01 T02970107  RH  031%=      5-min Rain = 0
KST3 111802Z 25008KT 30/11 A302 RMK A01 T02960107  RH  031%=      5-min Rain = 0
KST3 111803Z 22011KT 30/11 A302 RMK A01 T02960109  RH  031%=      5-min Rain = 0
KST3 111804Z 24009KT 30/11 A302 RMK A01 T02990108  RH  031%=      5-min Rain = 0
KST3 111805Z 22008KT 30/11 A302 RMK A01 T02990108  RH  031%=      5-min Rain = 0
KST3 111806Z 22008KT 30/11 A302 RMK A01 T03000108  RH  031%=      5-min Rain = 0
KST3 111807Z 21008KT 30/11 A302 RMK A01 T03000107  RH  030%=      5-min Rain = 0
KST3 111808Z 20008KT 30/11 A302 RMK A01 T03000108  RH  030%=      5-min Rain = 0
KST3 111809Z 21006KT 30/11 A302 RMK A01 T03010109  RH  030%=      5-min Rain = 0
KST3 111810Z 23008KT 30/11 A3019 RMK A01 T03030109  RH  030%=      5-min Rain = 0
KST3 111811Z 25008KT 30/11 A3019 RMK A01 T03020109  RH  030%=      5-min Rain = 0
KST3 111812Z 22007KT 30/11 A3019 RMK A01 T03010110  RH  031%=      5-min Rain = 0
KST3 111813Z 20004KT 30/11 A3019 RMK A01 T03040109  RH  030%=      5-min Rain = 0
KST3 111814Z 23009KT 30/11 A3019 RMK A01 T03040109  RH  030%=      5-min Rain = 0
KST3 111815Z 21009KT 30/11 A3019 RMK A01 T03030107  RH  030%=      5-min Rain = 0
KST3 111816Z 21007KT 30/11 A3019 RMK A01 T03030107  RH  030%=      5-min Rain = 0
KST3 111817Z 21006KT 30/11 A3019 RMK A01 T03020107  RH  030%=      5-min Rain = 0
KST3 111818Z 21003KT 30/10 A3019 RMK A01 T03020104  RH  029%=      5-min Rain = 0
KST3 111819Z 21006KT 30/10 A3019 RMK A01 T03010104  RH  030%=      5-min Rain = 0
KST3 111820Z 18007KT 30/10 A3019 RMK A01 T03010104  RH  030%=      5-min Rain = 0
KST3 111821Z 21003KT 30/10 A3019 RMK A01 T03010104  RH  030%=      5-min Rain = 0
KST3 111822Z 23004KT 30/11 A3019 RMK A01 T03010106  RH  030%=      5-min Rain = 0
KST3 111823Z 22005KT 30/11 A3019 RMK A01 T03010106  RH  030%=      5-min Rain = 0
KST3 111824Z 22008KT 30/11 A3019 RMK A01 T03020108  RH  030%=      5-min Rain = 0
KST3 111825Z 21008KT 31/11 A3019 RMK A01 T03050108  RH  030%=      5-min Rain = 0
KST3 111826Z 21007G13KT 30/11 A3019 RMK A01 T03040106  RH  029%=      5-min Rain = 0
KST3 111827Z 19009KT 30/11 A3019 RMK A01 T03030107  RH  030%=      5-min Rain = 0
KST3 111828Z 21007KT 30/11 A3019 RMK A01 T03020107  RH  030%=      5-min Rain = 0
KST3 111829Z 20008KT 31/11 A3019 RMK A01 T03050106  RH  029%=      5-min Rain = 0
KST3 111830Z 18008KT 31/11 A3019 RMK A01 T03050106  RH  029%=      5-min Rain = 0
KST3 111831Z 18007KT 31/11 A3019 RMK A01 T03050106  RH  029%=      5-min Rain = 0
KST3 111832Z 20008KT 31/11 A3019 RMK A01 T03050107  RH  029%=      5-min Rain = 0
KST3 111833Z 19009KT 31/11 A3019 RMK A01 T03090107  RH  029%=      5-min Rain = 0
KST3 111834Z 19007KT 31/11 A3019 RMK A01 T03080105  RH  028%=      5-min Rain = 0
KST3 111835Z 20005KT 31/10 A3019 RMK A01 T03060104  RH  029%=      5-min Rain = 0
KST3 111836Z 20003KT 30/11 A3019 RMK A01 T03040105  RH  029%=      5-min Rain = 0
KST3 111837Z 18003KT 31/10 A3019 RMK A01 T03050103  RH  029%=      5-min Rain = 0
KST3 111838Z 17001KT 31/10 A3019 RMK A01 T03050104  RH  029%=      5-min Rain = 0
KST3 111839Z 13001KT 31/10 A3018 RMK A01 T03050103  RH  029%=      5-min Rain = 0
KST3 111840Z 18005KT 30/11 A3019 RMK A01 T03040106  RH  029%=      5-min Rain = 0
KST3 111841Z 19007KT 31/11 A3018 RMK A01 T03090107  RH  029%=      5-min Rain = 0
KST3 111842Z 21004KT 31/10 A3018 RMK A01 T03100103  RH  028%=      5-min Rain = 0
KST3 111843Z 22005KT 31/10 A3018 RMK A01 T03070102  RH  028%=      5-min Rain = 0
KST3 111844Z 16003KT 31/11 A3018 RMK A01 T03080106  RH  029%=      5-min Rain = 0
KST3 111845Z 12005KT 31/10 A3018 RMK A01 T03090104  RH  028%=      5-min Rain = 0
KST3 111846Z 10006KT 31/11 A3018 RMK A01 T03090105  RH  028%=      5-min Rain = 0
KST3 111847Z 14005KT 31/10 A3018 RMK A01 T03080104  RH  028%=      5-min Rain = 0
KST3 111848Z 20005KT 31/10 A3018 RMK A01 T03080104  RH  028%=      5-min Rain = 0
KST3 111849Z 19009KT 31/11 A3018 RMK A01 T03090106  RH  029%=      5-min Rain = 0
KST3 111850Z 19008KT 31/11 A3018 RMK A01 T03130105  RH  028%=      5-min Rain = 0
KST3 111851Z 19007KT 31/10 A3018 RMK A01 T03120103  RH  028%=      5-min Rain = 0
KST3 111852Z 18004KT 31/10 A3018 RMK A01 T03100102  RH  028%=      5-min Rain = 0
KST3 111853Z 19005KT 31/10 A3018 RMK A01 T03100103  RH  028%=      5-min Rain = 0
KST3 111854Z 18005KT 31/10 A3018 RMK A01 T03080104  RH  028%=      5-min Rain = 0
KST3 111855Z 17002KT 31/10 A3018 RMK A01 T03090102  RH  028%=      5-min Rain = 0
KST3 111856Z 11001KT 31/10 A3018 RMK A01 T03080102  RH  028%=      5-min Rain = 0
KST3 111857Z 11000KT 31/10 A3018 RMK A01 T03070100  RH  028%=      5-min Rain = 0
KST3 111858Z 35001KT 31/10 A3018 RMK A01 T03070101  RH  028%=      5-min Rain = 0
KST3 111859Z 34000KT 31/10 A3018 RMK A01 T03080100  RH  028%=      5-min Rain = 0
KST3 111900Z 21003KT 31/10 A3018 RMK A01 T03080101  RH  028%=      5-min Rain = 0
KST3 111901Z 21007KT 31/11 A3018 RMK A01 T03110106  RH  028%=      5-min Rain = 0
KST3 111902Z 21003G9KT 31/10 A3018 RMK A01 T03130104  RH  028%=      5-min Rain = 0
KST3 111903Z 22007KT 31/10 A3018 RMK A01 T03120103  RH  027%=      5-min Rain = 0
KST3 111904Z 18008KT 31/11 A3018 RMK A01 T03130105  RH  028%=      5-min Rain = 0
KST3 111905Z 17007KT 32/11 A3018 RMK A01 T03170105  RH  027%=      5-min Rain = 0
KST3 111906Z 17006KT 32/10 A3018 RMK A01 T03170104  RH  027%=      5-min Rain = 0
KST3 111907Z 19007KT 32/10 A3018 RMK A01 T03150103  RH  027%=      5-min Rain = 0
KST3 111908Z 22007KT 31/10 A3018 RMK A01 T03130101  RH  027%=      5-min Rain = 0
KST3 111909Z 23006KT 31/10 A3017 RMK A01 T03090100  RH  027%=      5-min Rain = 0
KST3 111910Z 24005KT 31/10 A3017 RMK A01 T03080100  RH  028%=      5-min Rain = 0
KST3 111911Z 25006KT 31/10 A3017 RMK A01 T03080101  RH  028%=      5-min Rain = 0
KST3 111912Z 26005KT 31/10 A3017 RMK A01 T03110101  RH  027%=      5-min Rain = 0
KST3 111913Z 25005KT 31/10 A3017 RMK A01 T03130101  RH  027%=      5-min Rain = 0
KST3 111914Z 24006KT 31/10 A3017 RMK A01 T03140102  RH  027%=      5-min Rain = 0
KST3 111915Z 25005KT 32/10 A3017 RMK A01 T03150102  RH  027%=      5-min Rain = 0
KST3 111916Z 25005KT 32/10 A3017 RMK A01 T03150101  RH  027%=      5-min Rain = 0
KST3 111917Z 23004KT 31/10 A3017 RMK A01 T03130101  RH  027%=      5-min Rain = 0
KST3 111918Z 25005KT 31/10 A3017 RMK A01 T03130102  RH  027%=      5-min Rain = 0
KST3 111919Z 23003KT 31/10 A3017 RMK A01 T03130101  RH  027%=      5-min Rain = 0
KST3 111920Z 17003KT 31/10 A3017 RMK A01 T03120103  RH  028%=      5-min Rain = 0
KST3 111921Z 16004KT 31/10 A3017 RMK A01 T03140102  RH  027%=      5-min Rain = 0
KST3 111922Z 16005KT 32/10 A3017 RMK A01 T03150103  RH  027%=      5-min Rain = 0
KST3 111923Z 16003KT 32/10 A3017 RMK A01 T03150104  RH  027%=      5-min Rain = 0
KST3 111924Z 14005KT 32/11 A3017 RMK A01 T03170105  RH  027%=      5-min Rain = 0
KST3 111925Z 16006KT 32/11 A3017 RMK A01 T03180105  RH  027%=      5-min Rain = 0
KST3 111926Z 19005KT 32/10 A3017 RMK A01 T03200103  RH  026%=      5-min Rain = 0
KST3 111927Z 19008KT 32/10 A3017 RMK A01 T03190103  RH  026%=      5-min Rain = 0
KST3 111928Z 20007KT 32/10 A3017 RMK A01 T03180102  RH  026%=      5-min Rain = 0
KST3 111929Z 19006KT 32/10 A3017 RMK A01 T03160102  RH  027%=      5-min Rain = 0
KST3 111930Z 20007KT 32/10 A3017 RMK A01 T03150103  RH  027%=      5-min Rain = 0
KST3 111931Z 17006KT 31/10 A3017 RMK A01 T03140103  RH  027%=      5-min Rain = 0
KST3 111932Z 19007KT 32/11 A3017 RMK A01 T03180108  RH  027%=      5-min Rain = 0
KST3 111933Z 21007KT 32/10 A3017 RMK A01 T03220103  RH  026%=      5-min Rain = 0
KST3 111934Z 22008KT 32/10 A3017 RMK A01 T03220101  RH  026%=      5-min Rain = 0
KST3 111935Z 23006KT 32/10 A3016 RMK A01 T03180099  RH  026%=      5-min Rain = 0
KST3 111936Z 23004KT 32/10 A3016 RMK A01 T03150099  RH  026%=      5-min Rain = 0
KST3 111937Z 24001KT 31/10 A3016 RMK A01 T03130100  RH  027%=      5-min Rain = 0
KST3 111938Z 18007KT 32/10 A3016 RMK A01 T03150103  RH  027%=      5-min Rain = 0
KST3 111939Z 18007KT 32/10 A3016 RMK A01 T03170099  RH  026%=      5-min Rain = 0
KST3 111940Z 18006KT 32/10 A3016 RMK A01 T03160099  RH  026%=      5-min Rain = 0
KST3 111941Z 19006KT 32/10 A3016 RMK A01 T03150098  RH  026%=      5-min Rain = 0
KST3 111942Z 18005KT 31/10 A3016 RMK A01 T03140098  RH  026%=      5-min Rain = 0
KST3 111943Z 17003KT 31/10 A3016 RMK A01 T03140098  RH  026%=      5-min Rain = 0
KST3 111944Z 17004KT 31/10 A3016 RMK A01 T03140101  RH  027%=      5-min Rain = 0
KST3 111945Z 20004KT 31/10 A3016 RMK A01 T03140098  RH  026%=      5-min Rain = 0
KST3 111946Z 21002KT 31/09 A3016 RMK A01 T03120094  RH  026%=      5-min Rain = 0
KST3 111947Z 26003KT 31/10 A3016 RMK A01 T03100099  RH  027%=      5-min Rain = 0
KST3 111948Z 26004KT 31/10 A3016 RMK A01 T03130101  RH  027%=      5-min Rain = 0
KST3 111949Z 24004KT 31/10 A3016 RMK A01 T03140102  RH  027%=      5-min Rain = 0
KST3 111950Z 28003KT 32/10 A3016 RMK A01 T03150101  RH  027%=      5-min Rain = 0
KST3 111951Z 27003KT 32/10 A3016 RMK A01 T03150099  RH  026%=      5-min Rain = 0
KST3 111952Z 30001KT 31/10 A3016 RMK A01 T03140099  RH  026%=      5-min Rain = 0
KST3 111953Z 25002KT 31/10 A3016 RMK A01 T03140100  RH  027%=      5-min Rain = 0
KST3 111954Z 27002KT 32/10 A3016 RMK A01 T03150101  RH  027%=      5-min Rain = 0
KST3 111955Z 27002KT 32/10 A3015 RMK A01 T03150101  RH  027%=      5-min Rain = 0
KST3 111956Z 23004KT 32/10 A3015 RMK A01 T03150102  RH  027%=      5-min Rain = 0
KST3 111957Z 22007KT 32/11 A3015 RMK A01 T03160105  RH  027%=      5-min Rain = 0
KST3 111958Z 23006KT 32/11 A3015 RMK A01 T03160105  RH  027%=      5-min Rain = 0
KST3 111959Z 22005KT 32/11 A3015 RMK A01 T03170105  RH  027%=      5-min Rain = 0
KST3 112000Z 21006KT 32/11 A3015 RMK A01 T03170106  RH  027%=      5-min Rain = 0
KST3 112001Z 21005G10KT 32/10 A3015 RMK A01 T03180104  RH  027%=      5-min Rain = 0
KST3 112002Z 24005G10KT 32/10 A3015 RMK A01 T03170104  RH  027%=      5-min Rain = 0
KST3 112003Z 25004KT 32/11 A3015 RMK A01 T03150105  RH  027%=      5-min Rain = 0
KST3 112004Z 23004KT 32/10 A3015 RMK A01 T03150104  RH  027%=      5-min Rain = 0
KST3 112005Z 23001KT 32/10 A3015 RMK A01 T03160103  RH  027%=      5-min Rain = 0
KST3 112006Z 23001KT 32/11 A3015 RMK A01 T03180106  RH  027%=      5-min Rain = 0
KST3 112007Z 24004KT 32/10 A3015 RMK A01 T03210104  RH  026%=      5-min Rain = 0
KST3 112008Z 18004KT 32/11 A3015 RMK A01 T03240105  RH  026%=      5-min Rain = 0
KST3 112009Z 17006KT 33/11 A3015 RMK A01 T03260107  RH  026%=      5-min Rain = 0
KST3 112010Z 13006KT 32/11 A3015 RMK A01 T03240105  RH  026%=      5-min Rain = 0
KST3 112011Z 15004KT 32/11 A3015 RMK A01 T03200105  RH  027%=      5-min Rain = 0
KST3 112012Z 16007KT 32/11 A3015 RMK A01 T03190105  RH  027%=      5-min Rain = 0
KST3 112013Z 16008KT 32/11 A3015 RMK A01 T03190105  RH  027%=      5-min Rain = 0
KST3 112014Z 16007KT 32/10 A3014 RMK A01 T03190104  RH  027%=      5-min Rain = 0
KST3 112015Z 15006KT 32/11 A3015 RMK A01 T03190105  RH  027%=      5-min Rain = 0
KST3 112016Z 15006KT 32/10 A3014 RMK A01 T03190104  RH  027%=      5-min Rain = 0
KST3 112017Z 15009KT 32/11 A3014 RMK A01 T03190105  RH  027%=      5-min Rain = 0
KST3 112018Z 14006KT 32/10 A3014 RMK A01 T03180102  RH  027%=      5-min Rain = 0
KST3 112019Z 14007KT 32/11 A3014 RMK A01 T03160105  RH  027%=      5-min Rain = 0
KST3 112020Z 17008G13KT 32/11 A3014 RMK A01 T03180106  RH  027%=      5-min Rain = 0
KST3 112021Z 16010KT 32/10 A3015 RMK A01 T03210104  RH  026%=      5-min Rain = 0
KST3 112022Z 17007KT 32/10 A3015 RMK A01 T03220103  RH  026%=      5-min Rain = 0
KST3 112023Z 17006KT 32/10 A3014 RMK A01 T03220103  RH  026%=      5-min Rain = 0
KST3 112024Z 16009KT 32/10 A3014 RMK A01 T03210103  RH  026%=      5-min Rain = 0
KST3 112025Z 14009KT 32/10 A3014 RMK A01 T03210103  RH  026%=      5-min Rain = 0
KST3 112026Z 16009KT 32/10 A3014 RMK A01 T03200104  RH  026%=      5-min Rain = 0
KST3 112027Z 16008KT 32/10 A3014 RMK A01 T03210104  RH  026%=      5-min Rain = 0
KST3 112028Z 16008KT 32/10 A3014 RMK A01 T03220104  RH  026%=      5-min Rain = 0
KST3 112029Z 16008KT 32/10 A3014 RMK A01 T03210103  RH  026%=      5-min Rain = 0
KST3 112030Z 14008KT 32/10 A3014 RMK A01 T03210103  RH  026%=      5-min Rain = 0
KST3 112031Z 15005KT 32/10 A3014 RMK A01 T03210104  RH  026%=      5-min Rain = 0
KST3 112032Z 15004KT 32/10 A3014 RMK A01 T03190102  RH  026%=      5-min Rain = 0
KST3 112033Z 15007KT 32/11 A3014 RMK A01 T03190105  RH  027%=      5-min Rain = 0
KST3 112034Z 15002G8KT 32/10 A3014 RMK A01 T03200103  RH  026%=      5-min Rain = 0
KST3 112035Z 16005KT 32/10 A3014 RMK A01 T03190103  RH  026%=      5-min Rain = 0
KST3 112036Z 17005KT 32/10 A3014 RMK A01 T03200104  RH  026%=      5-min Rain = 0
KST3 112037Z 17004KT 32/10 A3014 RMK A01 T03200103  RH  026%=      5-min Rain = 0
KST3 112038Z 18004KT 32/11 A3014 RMK A01 T03200105  RH  027%=      5-min Rain = 0
KST3 112039Z 18003KT 32/10 A3014 RMK A01 T03210103  RH  026%=      5-min Rain = 0
KST3 112040Z 12005KT 32/10 A3014 RMK A01 T03210103  RH  026%=      5-min Rain = 0
KST3 112041Z 12005KT 32/10 A3014 RMK A01 T03210103  RH  026%=      5-min Rain = 0
KST3 112042Z 18004KT 32/10 A3014 RMK A01 T03230104  RH  026%=      5-min Rain = 0
KST3 112043Z 16006KT 32/10 A3014 RMK A01 T03240103  RH  026%=      5-min Rain = 0
KST3 112044Z 13004KT 32/10 A3014 RMK A01 T03230103  RH  026%=      5-min Rain = 0
KST3 112045Z 13008KT 32/10 A3014 RMK A01 T03230100  RH  025%=      5-min Rain = 0
KST3 112046Z 15009KT 32/10 A3014 RMK A01 T03220100  RH  025%=      5-min Rain = 0
KST3 112047Z 16008KT 32/10 A3014 RMK A01 T03220099  RH  025%=      5-min Rain = 0
KST3 112048Z 15010KT 32/10 A3014 RMK A01 T03230100  RH  025%=      5-min Rain = 0
KST3 112049Z 15008KT 32/10 A3014 RMK A01 T03240098  RH  025%=      5-min Rain = 0
KST3 112050Z 16007KT 32/10 A3014 RMK A01 T03220099  RH  025%=      5-min Rain = 0
KST3 112051Z 16006KT 32/10 A3014 RMK A01 T03210099  RH  025%=      5-min Rain = 0
KST3 112052Z 18008KT 32/10 A3014 RMK A01 T03210101  RH  026%=      5-min Rain = 0
KST3 112053Z 19008KT 32/10 A3014 RMK A01 T03220098  RH  025%=      5-min Rain = 0
KST3 112054Z 19006KT 32/10 A3014 RMK A01 T03220098  RH  025%=      5-min Rain = 0
KST3 112055Z 19004KT 32/10 A3014 RMK A01 T03220098  RH  025%=      5-min Rain = 0
KST3 112056Z 21004KT 32/10 A3014 RMK A01 T03210098  RH  025%=      5-min Rain = 0
KST3 112057Z 17008KT 32/10 A3014 RMK A01 T03220100  RH  025%=      5-min Rain = 0
KST3 112058Z 18006KT 32/10 A3014 RMK A01 T03230100  RH  025%=      5-min Rain = 0
KST3 112059Z 18006KT 32/10 A3014 RMK A01 T03200098  RH  025%=      5-min Rain = 0
KST3 112100Z 16005KT 32/10 A3014 RMK A01 T03170098  RH  026%=      5-min Rain = 0
KST3 112101Z 17003KT 32/10 A3014 RMK A01 T03150098  RH  026%=      5-min Rain = 0
KST3 112102Z 11001KT 31/10 A3013 RMK A01 T03140098  RH  026%=      5-min Rain = 0
KST3 112103Z 08003KT 31/10 A3013 RMK A01 T03130098  RH  027%=      5-min Rain = 0
KST3 112104Z 07006KT 31/10 A3013 RMK A01 T03130100  RH  027%=      5-min Rain = 0
KST3 112105Z 24007KT 32/10 A3013 RMK A01 T03170102  RH  027%=      5-min Rain = 0
KST3 112106Z 20007KT 32/10 A3013 RMK A01 T03210098  RH  025%=      5-min Rain = 0
KST3 112107Z 21002KT 32/10 A3013 RMK A01 T03200098  RH  025%=      5-min Rain = 0
KST3 112108Z 19008KT 32/10 A3013 RMK A01 T03200100  RH  026%=      5-min Rain = 0
KST3 112109Z 20008KT 32/10 A3013 RMK A01 T03210099  RH  025%=      5-min Rain = 0
KST3 112110Z 23005KT 32/10 A3013 RMK A01 T03210099  RH  026%=      5-min Rain = 0
KST3 112111Z 21006KT 32/10 A3013 RMK A01 T03210099  RH  025%=      5-min Rain = 0
KST3 112112Z 20006KT 32/10 A3013 RMK A01 T03230100  RH  025%=      5-min Rain = 0
KST3 112113Z 19007KT 32/10 A3013 RMK A01 T03240100  RH  025%=      5-min Rain = 0
KST3 112114Z 19004KT 32/10 A3013 RMK A01 T03240101  RH  025%=      5-min Rain = 0
KST3 112115Z 18005KT 32/10 A3013 RMK A01 T03230100  RH  025%=      5-min Rain = 0
KST3 112116Z 16005KT 33/10 A3013 RMK A01 T03250103  RH  026%=      5-min Rain = 0
KST3 112117Z 14004KT 32/10 A3013 RMK A01 T03240100  RH  025%=      5-min Rain = 0
KST3 112118Z 14005KT 32/10 A3013 RMK A01 T03210100  RH  026%=      5-min Rain = 0
KST3 112119Z 15005KT 32/10 A3013 RMK A01 T03200100  RH  026%=      5-min Rain = 0
KST3 112120Z 17006KT 32/10 A3013 RMK A01 T03200099  RH  026%=      5-min Rain = 0
KST3 112121Z 17007KT 32/10 A3013 RMK A01 T03200099  RH  026%=      5-min Rain = 0
KST3 112122Z 16005KT 32/10 A3013 RMK A01 T03230099  RH  025%=      5-min Rain = 0
KST3 112123Z 18004KT 32/10 A3013 RMK A01 T03240101  RH  025%=      5-min Rain = 0
KST3 112124Z 17004KT 33/10 A3013 RMK A01 T03250101  RH  025%=      5-min Rain = 0
KST3 112125Z 18004KT 33/10 A3013 RMK A01 T03260102  RH  025%=      5-min Rain = 0
KST3 112126Z 14006KT 33/10 A3013 RMK A01 T03270104  RH  026%=      5-min Rain = 0
KST3 112127Z 14009KT 33/11 A3012 RMK A01 T03280106  RH  026%=      5-min Rain = 0
KST3 112128Z 18006KT 33/10 A3012 RMK A01 T03260102  RH  025%=      5-min Rain = 0
KST3 112129Z 16004KT 33/10 A3012 RMK A01 T03250103  RH  025%=      5-min Rain = 0
KST3 112130Z 17003KT 32/10 A3012 RMK A01 T03230101  RH  026%=      5-min Rain = 0
KST3 112131Z 14004KT 32/10 A3012 RMK A01 T03220103  RH  026%=      5-min Rain = 0
KST3 112132Z 15004KT 32/11 A3012 RMK A01 T03220106  RH  027%=      5-min Rain = 0
KST3 112133Z 17009KT 32/11 A3012 RMK A01 T03230105  RH  026%=      5-min Rain = 0
KST3 112134Z 18007KT 33/10 A3012 RMK A01 T03250104  RH  026%=      5-min Rain = 0
KST3 112135Z 19008KT 33/10 A3012 RMK A01 T03250103  RH  026%=      5-min Rain = 0
KST3 112136Z 17008KT 33/10 A3012 RMK A01 T03250103  RH  026%=      5-min Rain = 0
KST3 112137Z 14005KT 32/11 A3012 RMK A01 T03240105  RH  026%=      5-min Rain = 0
KST3 112138Z 17003KT 32/10 A3012 RMK A01 T03240104  RH  026%=      5-min Rain = 0
KST3 112139Z 19005KT 32/10 A3012 RMK A01 T03240103  RH  026%=      5-min Rain = 0
KST3 112140Z 19007KT 32/10 A3012 RMK A01 T03230103  RH  026%=      5-min Rain = 0
KST3 112141Z 18007KT 33/10 A3012 RMK A01 T03250103  RH  026%=      5-min Rain = 0
KST3 112142Z 18006KT 33/10 A3012 RMK A01 T03270104  RH  025%=      5-min Rain = 0
KST3 112143Z 20004KT 32/10 A3012 RMK A01 T03240100  RH  025%=      5-min Rain = 0
KST3 112144Z 18003KT 32/10 A3012 RMK A01 T03200101  RH  026%=      5-min Rain = 0
KST3 112145Z 21007KT 32/10 A3012 RMK A01 T03220102  RH  026%=      5-min Rain = 0
KST3 112146Z 22006KT 32/10 A3012 RMK A01 T03240101  RH  025%=      5-min Rain = 0
KST3 112147Z 23007KT 32/10 A3012 RMK A01 T03220101  RH  026%=      5-min Rain = 0
KST3 112148Z 23005KT 32/10 A3012 RMK A01 T03220101  RH  026%=      5-min Rain = 0
KST3 112149Z 24004KT 32/10 A3012 RMK A01 T03200100  RH  026%=      5-min Rain = 0
KST3 112150Z 23006KT 32/10 A3012 RMK A01 T03200101  RH  026%=      5-min Rain = 0
KST3 112151Z 23007KT 32/10 A3012 RMK A01 T03220098  RH  025%=      5-min Rain = 0
KST3 112152Z 22005KT 32/10 A3012 RMK A01 T03230096  RH  025%=      5-min Rain = 0
KST3 112153Z 19008KT 32/10 A3012 RMK A01 T03230100  RH  025%=      5-min Rain = 0
KST3 112154Z 18006KT 33/10 A3012 RMK A01 T03250104  RH  026%=      5-min Rain = 0
KST3 112155Z 18005KT 32/10 A3012 RMK A01 T03240103  RH  026%=      5-min Rain = 0
KST3 112156Z 14005KT 32/10 A3012 RMK A01 T03230104  RH  026%=      5-min Rain = 0
KST3 112157Z 14003KT 32/10 A3012 RMK A01 T03220103  RH  026%=      5-min Rain = 0
KST3 112158Z 13007KT 32/10 A3012 RMK A01 T03200104  RH  026%=      5-min Rain = 0
KST3 112159Z 14007KT 32/10 A3011 RMK A01 T03200104  RH  026%=      5-min Rain = 0
KST3 112200Z 14005KT 32/10 A3011 RMK A01 T03200104  RH  027%=      5-min Rain = 0
KST3 112201Z 13007KT 32/11 A3011 RMK A01 T03200105  RH  027%=      5-min Rain = 0
KST3 112202Z 13008KT 32/10 A3011 RMK A01 T03200104  RH  026%=      5-min Rain = 0
KST3 112203Z 12007KT 32/10 A3012 RMK A01 T03200104  RH  027%=      5-min Rain = 0
KST3 112204Z 14004KT 32/10 A3011 RMK A01 T03190103  RH  026%=      5-min Rain = 0
KST3 112205Z 13007KT 32/11 A3011 RMK A01 T03190105  RH  027%=      5-min Rain = 0
KST3 112206Z 11004KT 32/10 A3011 RMK A01 T03190103  RH  026%=      5-min Rain = 0
KST3 112207Z 10005KT 32/10 A3011 RMK A01 T03200103  RH  026%=      5-min Rain = 0
KST3 112208Z 13005KT 32/10 A3011 RMK A01 T03200103  RH  026%=      5-min Rain = 0
KST3 112209Z 11004KT 32/10 A3011 RMK A01 T03180103  RH  027%=      5-min Rain = 0
KST3 112210Z 10007KT 32/10 A3011 RMK A01 T03190103  RH  027%=      5-min Rain = 0
KST3 112211Z 11007KT 32/10 A3011 RMK A01 T03190102  RH  026%=      5-min Rain = 0
KST3 112212Z 16007KT 32/10 A3011 RMK A01 T03190103  RH  026%=      5-min Rain = 0
KST3 112213Z 16008KT 32/10 A3011 RMK A01 T03200104  RH  026%=      5-min Rain = 0
KST3 112214Z 18006KT 32/11 A3011 RMK A01 T03220105  RH  026%=      5-min Rain = 0
KST3 112215Z 16005KT 32/10 A3011 RMK A01 T03230104  RH  026%=      5-min Rain = 0
KST3 112216Z 16005KT 32/10 A3011 RMK A01 T03220104  RH  026%=      5-min Rain = 0
KST3 112217Z 17004KT 32/11 A3011 RMK A01 T03220105  RH  026%=      5-min Rain = 0
KST3 112218Z 22002KT 32/10 A3011 RMK A01 T03220103  RH  026%=      5-min Rain = 0
KST3 112219Z 22003KT 32/10 A3011 RMK A01 T03220103  RH  026%=      5-min Rain = 0
KST3 112220Z 23002KT 32/11 A3011 RMK A01 T03220105  RH  026%=      5-min Rain = 0
KST3 112221Z 16006KT 32/11 A3011 RMK A01 T03230105  RH  026%=      5-min Rain = 0
KST3 112222Z 15007KT 32/10 A3011 RMK A01 T03240102  RH  026%=      5-min Rain = 0
KST3 112223Z 15004KT 32/10 A3011 RMK A01 T03240101  RH  025%=      5-min Rain = 0
KST3 112224Z 13007KT 32/10 A3011 RMK A01 T03220102  RH  026%=      5-min Rain = 0
KST3 112225Z 13007KT 32/10 A3011 RMK A01 T03210101  RH  026%=      5-min Rain = 0
KST3 112226Z 11005KT 32/10 A3011 RMK A01 T03200101  RH  026%=      5-min Rain = 0
KST3 112227Z 13007KT 32/10 A3011 RMK A01 T03190102  RH  026%=      5-min Rain = 0
KST3 112228Z 13006KT 32/10 A3011 RMK A01 T03200101  RH  026%=      5-min Rain = 0
KST3 112229Z 14006KT 32/10 A3011 RMK A01 T03190100  RH  026%=      5-min Rain = 0
KST3 112230Z 15009KT 32/10 A3011 RMK A01 T03200102  RH  026%=      5-min Rain = 0
KST3 112231Z 14008KT 32/10 A3011 RMK A01 T03200103  RH  026%=      5-min Rain = 0
KST3 112232Z 14007KT 32/10 A3011 RMK A01 T03190101  RH  026%=      5-min Rain = 0
KST3 112233Z 12006KT 32/10 A3011 RMK A01 T03190101  RH  026%=      5-min Rain = 0
KST3 112234Z 12006KT 32/10 A3011 RMK A01 T03180101  RH  026%=      5-min Rain = 0
KST3 112235Z 12007KT 32/10 A3011 RMK A01 T03170101  RH  026%=      5-min Rain = 0
KST3 112236Z 10005KT 32/10 A3011 RMK A01 T03170101  RH  026%=      5-min Rain = 0
KST3 112237Z 10005KT 32/10 A3011 RMK A01 T03160102  RH  027%=      5-min Rain = 0
KST3 112238Z 11005KT 32/10 A3011 RMK A01 T03150103  RH  027%=      5-min Rain = 0
KST3 112239Z 15004KT 32/11 A3011 RMK A01 T03160105  RH  027%=      5-min Rain = 0
KST3 112240Z 17005KT 32/11 A3011 RMK A01 T03180106  RH  027%=      5-min Rain = 0
KST3 112241Z 19007KT 32/11 A3011 RMK A01 T03190106  RH  027%=      5-min Rain = 0
KST3 112242Z 20007KT 32/11 A3011 RMK A01 T03210107  RH  027%=      5-min Rain = 0
KST3 112243Z 21008KT 32/11 A3011 RMK A01 T03240107  RH  026%=      5-min Rain = 0
KST3 112244Z 21006KT 32/11 A3011 RMK A01 T03230105  RH  026%=      5-min Rain = 0
KST3 112245Z 21004KT 32/11 A3011 RMK A01 T03220105  RH  026%=      5-min Rain = 0
KST3 112246Z 18002KT 32/10 A3011 RMK A01 T03190104  RH  027%=      5-min Rain = 0
KST3 112247Z 17001KT 32/11 A3011 RMK A01 T03180107  RH  027%=      5-min Rain = 0
KST3 112248Z 16003KT 32/11 A3011 RMK A01 T03190106  RH  027%=      5-min Rain = 0
KST3 112249Z 15003KT 32/11 A3011 RMK A01 T03200105  RH  027%=      5-min Rain = 0
KST3 112250Z 16002KT 32/11 A3011 RMK A01 T03190105  RH  027%=      5-min Rain = 0
KST3 112251Z 17005KT 32/11 A3011 RMK A01 T03190107  RH  027%=      5-min Rain = 0
KST3 112252Z 17006KT 32/11 A3011 RMK A01 T03210107  RH  027%=      5-min Rain = 0
KST3 112253Z 18006KT 32/11 A3011 RMK A01 T03210106  RH  027%=      5-min Rain = 0
KST3 112254Z 19008KT 32/11 A3011 RMK A01 T03210106  RH  027%=      5-min Rain = 0
KST3 112255Z 18008KT 32/11 A3011 RMK A01 T03210105  RH  027%=      5-min Rain = 0
KST3 112256Z 19007KT 32/11 A3011 RMK A01 T03210105  RH  026%=      5-min Rain = 0
KST3 112257Z 18007KT 32/10 A3011 RMK A01 T03200103  RH  026%=      5-min Rain = 0
KST3 112258Z 18006KT 32/11 A3011 RMK A01 T03190105  RH  027%=      5-min Rain = 0
KST3 112259Z 19003KT 32/10 A3011 RMK A01 T03170103  RH  027%=      5-min Rain = 0
KST3 112300Z 15004KT 32/11 A3011 RMK A01 T03160105  RH  027%=      5-min Rain = 0
KST3 112301Z 14004KT 32/11 A3011 RMK A01 T03170105  RH  027%=      5-min Rain = 0
KST3 112302Z 14004KT 32/11 A3011 RMK A01 T03170107  RH  027%=      5-min Rain = 0
KST3 112303Z 13004KT 32/11 A3011 RMK A01 T03170106  RH  027%=      5-min Rain = 0
KST3 112304Z 16006KT 32/11 A3011 RMK A01 T03170106  RH  027%=      5-min Rain = 0
KST3 112305Z 15005KT 32/11 A3011 RMK A01 T03180105  RH  027%=      5-min Rain = 0
KST3 112306Z 15004KT 32/11 A3011 RMK A01 T03170105  RH  027%=      5-min Rain = 0
KST3 112307Z 14005KT 32/11 A3011 RMK A01 T03160105  RH  027%=      5-min Rain = 0
KST3 112308Z 13004KT 32/11 A3011 RMK A01 T03160106  RH  027%=      5-min Rain = 0
KST3 112309Z 14003KT 32/11 A3011 RMK A01 T03160105  RH  027%=      5-min Rain = 0
KST3 112310Z 12004KT 32/11 A3011 RMK A01 T03160106  RH  027%=      5-min Rain = 0
KST3 112311Z 12002KT 32/10 A3011 RMK A01 T03150104  RH  027%=      5-min Rain = 0
KST3 112312Z 11003KT 32/11 A3011 RMK A01 T03150105  RH  027%=      5-min Rain = 0
KST3 112313Z 12003KT 32/11 A3011 RMK A01 T03150106  RH  028%=      5-min Rain = 0
KST3 112314Z 11005KT 32/11 A3011 RMK A01 T03160105  RH  027%=      5-min Rain = 0
KST3 112315Z 12001KT 32/10 A3011 RMK A01 T03160103  RH  027%=      5-min Rain = 0
KST3 112316Z 14002KT 32/10 A3011 RMK A01 T03150103  RH  027%=      5-min Rain = 0
KST3 112317Z 13004KT 32/10 A3011 RMK A01 T03150104  RH  027%=      5-min Rain = 0
KST3 112318Z 15007KT 32/11 A3011 RMK A01 T03150105  RH  027%=      5-min Rain = 0
KST3 112319Z 15006KT 32/11 A3011 RMK A01 T03160105  RH  027%=      5-min Rain = 0
KST3 112320Z 13006KT 32/10 A3011 RMK A01 T03160104  RH  027%=      5-min Rain = 0
KST3 112321Z 14006KT 32/11 A3011 RMK A01 T03160105  RH  027%=      5-min Rain = 0
KST3 112322Z 14005KT 32/10 A3011 RMK A01 T03170104  RH  027%=      5-min Rain = 0
KST3 112323Z 13004KT 32/10 A3011 RMK A01 T03160104  RH  027%=      5-min Rain = 0
KST3 112324Z 17003KT 32/10 A3011 RMK A01 T03160103  RH  027%=      5-min Rain = 0
KST3 112325Z 17005KT 32/10 A3011 RMK A01 T03150101  RH  027%=      5-min Rain = 0
KST3 112326Z 15006KT 32/10 A3011 RMK A01 T03150103  RH  027%=      5-min Rain = 0
KST3 112327Z 16005KT 32/10 A3011 RMK A01 T03160103  RH  027%=      5-min Rain = 0
KST3 112328Z 16004KT 32/10 A3011 RMK A01 T03150102  RH  027%=      5-min Rain = 0
KST3 112329Z 17003KT 31/10 A3011 RMK A01 T03140104  RH  027%=      5-min Rain = 0
KST3 112330Z 19006KT 31/10 A3011 RMK A01 T03140103  RH  027%=      5-min Rain = 0
KST3 112331Z 18006KT 32/10 A3011 RMK A01 T03150103  RH  027%=      5-min Rain = 0
KST3 112332Z 16006KT 32/10 A3011 RMK A01 T03150104  RH  027%=      5-min Rain = 0
KST3 112333Z 16006KT 31/10 A3011 RMK A01 T03140104  RH  027%=      5-min Rain = 0
KST3 112334Z 16006KT 31/10 A3011 RMK A01 T03140104  RH  027%=      5-min Rain = 0
KST3 112335Z 15005KT 31/11 A3011 RMK A01 T03140105  RH  027%=      5-min Rain = 0
KST3 112336Z 15006KT 31/11 A3011 RMK A01 T03140105  RH  028%=      5-min Rain = 0
KST3 112337Z 14006KT 31/10 A3011 RMK A01 T03130104  RH  027%=      5-min Rain = 0
KST3 112338Z 13005KT 31/10 A3011 RMK A01 T03130104  RH  028%=      5-min Rain = 0
KST3 112339Z 13002KT 31/10 A3011 RMK A01 T03120103  RH  028%=      5-min Rain = 0
KST3 112340Z 11002KT 31/10 A3011 RMK A01 T03110103  RH  028%=      5-min Rain = 0
KST3 112341Z 11002KT 31/10 A3011 RMK A01 T03100104  RH  028%=      5-min Rain = 0
KST3 112342Z 12002KT 31/10 A3011 RMK A01 T03100103  RH  028%=      5-min Rain = 0
KST3 112343Z 12002KT 31/10 A3011 RMK A01 T03110103  RH  028%=      5-min Rain = 0
KST3 112344Z 14002KT 31/10 A3011 RMK A01 T03100103  RH  028%=      5-min Rain = 0
KST3 112345Z 17005KT 31/11 A3011 RMK A01 T03110105  RH  028%=      5-min Rain = 0
KST3 112346Z 16004KT 31/10 A3011 RMK A01 T03110103  RH  028%=      5-min Rain = 0
KST3 112347Z 16003KT 31/10 A3011 RMK A01 T03120104  RH  028%=      5-min Rain = 0
KST3 112348Z 16005KT 31/10 A3011 RMK A01 T03120104  RH  028%=      5-min Rain = 0
KST3 112349Z 15006KT 31/10 A3011 RMK A01 T03130103  RH  027%=      5-min Rain = 0
KST3 112350Z 16006KT 31/10 A3011 RMK A01 T03130104  RH  028%=      5-min Rain = 0
KST3 112351Z 15005KT 31/10 A3011 RMK A01 T03120104  RH  028%=      5-min Rain = 0
KST3 112352Z 15004KT 31/11 A3011 RMK A01 T03110106  RH  028%=      5-min Rain = 0
KST3 112353Z 15005KT 31/11 A3011 RMK A01 T03110105  RH  028%=      5-min Rain = 0
KST3 112354Z 14004KT 31/10 A3011 RMK A01 T03100103  RH  028%=      5-min Rain = 0
KST3 112355Z 15005KT 31/10 A3011 RMK A01 T03090104  RH  028%=      5-min Rain = 0
KST3 112356Z 15006KT 31/10 A301 RMK A01 T03100104  RH  028%=      5-min Rain = 0
KST3 112357Z 15005KT 31/10 A301 RMK A01 T03090103  RH  028%=      5-min Rain = 0
KST3 112358Z 15004KT 31/10 A301 RMK A01 T03090103  RH  028%=      5-min Rain = 0
KST3 112359Z 15003KT 31/10 A301 RMK A01 T03090104  RH  028%=      5-min Rain = 0
KST3 120000Z 14005KT 31/10 A301 RMK A01 T03090104  RH  028%=      5-min Rain = 0
KST3 120001Z 14005KT 31/10 A301 RMK A01 T03080104  RH  028%=      5-min Rain = 0
KST3 120002Z 16005KT 31/11 A301 RMK A01 T03080105  RH  028%=      5-min Rain = 0
KST3 120003Z 16004KT 31/10 A301 RMK A01 T03080103  RH  028%=      5-min Rain = 0
KST3 120004Z 15004KT 31/10 A301 RMK A01 T03080104  RH  028%=      5-min Rain = 0
KST3 120005Z 15005KT 31/11 A301 RMK A01 T03080105  RH  029%=      5-min Rain = 0
KST3 120006Z 15004KT 31/10 A3011 RMK A01 T03070104  RH  028%=      5-min Rain = 0
KST3 120007Z 15005KT 31/10 A3011 RMK A01 T03070104  RH  029%=      5-min Rain = 0
KST3 120008Z 17004KT 31/10 A3011 RMK A01 T03070104  RH  029%=      5-min Rain = 0
KST3 120009Z 16004KT 31/10 A3011 RMK A01 T03060104  RH  029%=      5-min Rain = 0
KST3 120010Z 15004KT 31/10 A3011 RMK A01 T03060104  RH  029%=      5-min Rain = 0
KST3 120011Z 15004KT 31/10 A3011 RMK A01 T03060104  RH  029%=      5-min Rain = 0
KST3 120012Z 16004KT 31/10 A3011 RMK A01 T03050104  RH  029%=      5-min Rain = 0
KST3 120013Z 16005KT 31/10 A3011 RMK A01 T03050104  RH  029%=      5-min Rain = 0
KST3 120014Z 17004KT 30/10 A3011 RMK A01 T03040104  RH  029%=      5-min Rain = 0
KST3 120015Z 16003KT 30/11 A3011 RMK A01 T03040105  RH  029%=      5-min Rain = 0
KST3 120016Z 16004KT 30/11 A3011 RMK A01 T03030105  RH  029%=      5-min Rain = 0
KST3 120017Z 16005KT 30/10 A3011 RMK A01 T03030104  RH  029%=      5-min Rain = 0
KST3 120018Z 16004KT 30/10 A3011 RMK A01 T03030104  RH  029%=      5-min Rain = 0
KST3 120019Z 15004KT 30/10 A3011 RMK A01 T03020104  RH  029%=      5-min Rain = 0
KST3 120020Z 15004KT 30/10 A3011 RMK A01 T03020103  RH  029%=      5-min Rain = 0
KST3 120021Z 15003KT 30/10 A3011 RMK A01 T03010103  RH  029%=      5-min Rain = 0
KST3 120022Z 16003KT 30/10 A3011 RMK A01 T03010104  RH  029%=      5-min Rain = 0
KST3 120023Z 17005KT 30/10 A3011 RMK A01 T03010104  RH  030%=      5-min Rain = 0
KST3 120024Z 16005KT 30/10 A3011 RMK A01 T03000104  RH  030%=      5-min Rain = 0
KST3 120025Z 16004KT 30/10 A3011 RMK A01 T02980103  RH  030%=      5-min Rain = 0
KST3 120026Z 16004KT 30/10 A3011 RMK A01 T02980104  RH  030%=      5-min Rain = 0
KST3 120027Z 16004KT 30/10 A3011 RMK A01 T02980104  RH  030%=      5-min Rain = 0
KST3 120028Z 17005KT 30/11 A3011 RMK A01 T02980105  RH  030%=      5-min Rain = 0
KST3 120029Z 17005KT 30/11 A3011 RMK A01 T02970106  RH  031%=      5-min Rain = 0
KST3 120030Z 18004KT 30/11 A3011 RMK A01 T02960106  RH  031%=      5-min Rain = 0
KST3 120031Z 18004KT 30/11 A3011 RMK A01 T02950107  RH  031%=      5-min Rain = 0
KST3 120032Z 18004KT 30/11 A3011 RMK A01 T02950107  RH  031%=      5-min Rain = 0
KST3 120033Z 19003KT 30/11 A3011 RMK A01 T02950108  RH  031%=      5-min Rain = 0
KST3 120034Z 19004KT 30/11 A3011 RMK A01 T02950109  RH  032%=      5-min Rain = 0
KST3 120035Z 19005KT 29/11 A3011 RMK A01 T02940110  RH  032%=      5-min Rain = 0
KST3 120036Z 19005KT 29/11 A3011 RMK A01 T02940111  RH  032%=      5-min Rain = 0
KST3 120037Z 19005KT 29/11 A3011 RMK A01 T02930112  RH  032%=      5-min Rain = 0
KST3 120038Z 20004KT 29/11 A3011 RMK A01 T02920112  RH  033%=      5-min Rain = 0
KST3 120039Z 20005KT 29/11 A3011 RMK A01 T02910113  RH  033%=      5-min Rain = 0
KST3 120040Z 19005KT 29/11 A3011 RMK A01 T02900113  RH  033%=      5-min Rain = 0
KST3 120041Z 19004KT 29/11 A3011 RMK A01 T02890113  RH  034%=      5-min Rain = 0
KST3 120042Z 19004KT 29/11 A3011 RMK A01 T02880113  RH  034%=      5-min Rain = 0
KST3 120043Z 19004KT 29/11 A3011 RMK A01 T02860113  RH  034%=      5-min Rain = 0
KST3 120044Z 20004KT 29/11 A3011 RMK A01 T02860114  RH  034%=      5-min Rain = 0
KST3 120045Z 20004KT 28/11 A3011 RMK A01 T02840114  RH  035%=      5-min Rain = 0
KST3 120046Z 19004KT 28/11 A3011 RMK A01 T02830114  RH  035%=      5-min Rain = 0
KST3 120047Z 19004KT 28/11 A3011 RMK A01 T02820114  RH  035%=      5-min Rain = 0
KST3 120048Z 20004KT 28/11 A3011 RMK A01 T02810114  RH  035%=      5-min Rain = 0
KST3 120049Z 19004KT 28/11 A3011 RMK A01 T02800114  RH  036%=      5-min Rain = 0
KST3 120050Z 19004KT 28/12 A3011 RMK A01 T02790115  RH  036%=      5-min Rain = 0
KST3 120051Z 19004KT 28/12 A3011 RMK A01 T02780115  RH  036%=      5-min Rain = 0
KST3 120052Z 19004KT 28/12 A3011 RMK A01 T02780115  RH  036%=      5-min Rain = 0
KST3 120053Z 19004KT 28/12 A3011 RMK A01 T02770116  RH  037%=      5-min Rain = 0
KST3 120054Z 20004KT 28/12 A3011 RMK A01 T02760116  RH  037%=      5-min Rain = 0
KST3 120055Z 20004KT 28/12 A3011 RMK A01 T02760116  RH  037%=      5-min Rain = 0
KST3 120056Z 20004KT 28/12 A3011 RMK A01 T02750116  RH  037%=      5-min Rain = 0
KST3 120057Z 20004KT 27/12 A3011 RMK A01 T02740116  RH  037%=      5-min Rain = 0
KST3 120058Z 20004KT 27/12 A3011 RMK A01 T02730116  RH  038%=      5-min Rain = 0
KST3 120059Z 20004KT 27/12 A3011 RMK A01 T02720116  RH  038%=      5-min Rain = 0
KST3 120100Z 21004KT 27/12 A3011 RMK A01 T02720116  RH  038%=      5-min Rain = 0
KST3 120101Z 20004KT 27/12 A3011 RMK A01 T02710116  RH  038%=      5-min Rain = 0
KST3 120102Z 20004KT 27/12 A3011 RMK A01 T02700116  RH  038%=      5-min Rain = 0
KST3 120103Z 20005KT 27/12 A3011 RMK A01 T02700117  RH  038%=      5-min Rain = 0
KST3 120104Z 20005KT 27/12 A3011 RMK A01 T02700117  RH  039%=      5-min Rain = 0
KST3 120105Z 20005KT 27/12 A3011 RMK A01 T02690116  RH  039%=      5-min Rain = 0
KST3 120106Z 20006KT 27/12 A3011 RMK A01 T02690117  RH  039%=      5-min Rain = 0
KST3 120107Z 20005KT 27/12 A3011 RMK A01 T02690117  RH  039%=      5-min Rain = 0
KST3 120108Z 20005KT 27/12 A3011 RMK A01 T02690117  RH  039%=      5-min Rain = 0
KST3 120109Z 19005KT 27/12 A3011 RMK A01 T02690116  RH  039%=      5-min Rain = 0
KST3 120110Z 19005KT 27/12 A3011 RMK A01 T02690116  RH  039%=      5-min Rain = 0
KST3 120111Z 19005KT 27/12 A3011 RMK A01 T02690116  RH  039%=      5-min Rain = 0
KST3 120112Z 19005KT 27/12 A3011 RMK A01 T02690116  RH  039%=      5-min Rain = 0
KST3 120113Z 19005KT 27/12 A3011 RMK A01 T02690116  RH  038%=      5-min Rain = 0
KST3 120114Z 19005KT 27/12 A3011 RMK A01 T02690116  RH  038%=      5-min Rain = 0
KST3 120115Z 19005KT 27/12 A3011 RMK A01 T02690116  RH  038%=      5-min Rain = 0
KST3 120116Z 19005KT 27/12 A3011 RMK A01 T02690116  RH  038%=      5-min Rain = 0
KST3 120117Z 19005KT 27/12 A3012 RMK A01 T02690116  RH  038%=      5-min Rain = 0
KST3 120118Z 19005KT 27/12 A3012 RMK A01 T02690115  RH  038%=      5-min Rain = 0
KST3 120119Z 19005KT 27/12 A3012 RMK A01 T02680115  RH  039%=      5-min Rain = 0
KST3 120120Z 19005KT 27/12 A3012 RMK A01 T02680115  RH  039%=      5-min Rain = 0
KST3 120121Z 19005KT 27/12 A3012 RMK A01 T02670116  RH  039%=      5-min Rain = 0
KST3 120122Z 19005KT 27/12 A3012 RMK A01 T02670115  RH  039%=      5-min Rain = 0
KST3 120123Z 19005KT 27/12 A3012 RMK A01 T02660116  RH  039%=      5-min Rain = 0
KST3 120124Z 19005KT 27/12 A3012 RMK A01 T02650115  RH  039%=      5-min Rain = 0
KST3 120125Z 19005KT 27/12 A3012 RMK A01 T02650115  RH  039%=      5-min Rain = 0
KST3 120126Z 19005KT 26/12 A3012 RMK A01 T02640115  RH  039%=      5-min Rain = 0
KST3 120127Z 20005KT 26/12 A3012 RMK A01 T02630115  RH  040%=      5-min Rain = 0
KST3 120128Z 20005KT 26/12 A3012 RMK A01 T02620115  RH  040%=      5-min Rain = 0
KST3 120129Z 20005KT 26/12 A3012 RMK A01 T02620115  RH  040%=      5-min Rain = 0
KST3 120130Z 20005KT 26/12 A3012 RMK A01 T02620116  RH  040%=      5-min Rain = 0
KST3 120131Z 20004KT 26/12 A3012 RMK A01 T02620116  RH  040%=      5-min Rain = 0
KST3 120132Z 20005KT 26/12 A3012 RMK A01 T02620115  RH  040%=      5-min Rain = 0
KST3 120133Z 20004KT 26/12 A3012 RMK A01 T02620115  RH  040%=      5-min Rain = 0
KST3 120134Z 20004KT 26/12 A3012 RMK A01 T02620116  RH  040%=      5-min Rain = 0
KST3 120135Z 20004KT 26/12 A3012 RMK A01 T02620115  RH  040%=      5-min Rain = 0
KST3 120136Z 20004KT 26/12 A3012 RMK A01 T02620115  RH  040%=      5-min Rain = 0
KST3 120137Z 20005KT 26/12 A3012 RMK A01 T02620115  RH  040%=      5-min Rain = 0
KST3 120138Z 20005KT 26/12 A3012 RMK A01 T02620115  RH  040%=      5-min Rain = 0
KST3 120139Z 20005KT 26/11 A3012 RMK A01 T02620114  RH  040%=      5-min Rain = 0
KST3 120140Z 20005KT 26/11 A3012 RMK A01 T02620114  RH  040%=      5-min Rain = 0
KST3 120141Z 20005KT 26/11 A3012 RMK A01 T02620114  RH  040%=      5-min Rain = 0
KST3 120142Z 20005KT 26/11 A3012 RMK A01 T02620114  RH  040%=      5-min Rain = 0
KST3 120143Z 20005KT 26/11 A3012 RMK A01 T02620114  RH  040%=      5-min Rain = 0
KST3 120144Z 20005KT 26/11 A3012 RMK A01 T02610114  RH  040%=      5-min Rain = 0
KST3 120145Z 20005KT 26/11 A3012 RMK A01 T02610114  RH  040%=      5-min Rain = 0
KST3 120146Z 20005KT 26/11 A3012 RMK A01 T02620114  RH  040%=      5-min Rain = 0
KST3 120147Z 20005KT 26/11 A3012 RMK A01 T02620114  RH  040%=      5-min Rain = 0
KST3 120148Z 20005KT 26/11 A3012 RMK A01 T02610114  RH  040%=      5-min Rain = 0
KST3 120149Z 20005KT 26/11 A3012 RMK A01 T02620114  RH  040%=      5-min Rain = 0
KST3 120150Z 20005KT 26/11 A3012 RMK A01 T02610114  RH  040%=      5-min Rain = 0
KST3 120151Z 20005KT 26/11 A3012 RMK A01 T02610114  RH  040%=      5-min Rain = 0
KST3 120152Z 20005KT 26/11 A3012 RMK A01 T02610114  RH  040%=      5-min Rain = 0
KST3 120153Z 20005KT 26/11 A3012 RMK A01 T02610114  RH  040%=      5-min Rain = 0
KST3 120154Z 20005KT 26/11 A3012 RMK A01 T02600114  RH  040%=      5-min Rain = 0
KST3 120155Z 20005KT 26/11 A3012 RMK A01 T02610114  RH  040%=      5-min Rain = 0
KST3 120156Z 19005KT 26/11 A3012 RMK A01 T02610114  RH  040%=      5-min Rain = 0
KST3 120157Z 20005KT 26/11 A3012 RMK A01 T02610114  RH  040%=      5-min Rain = 0
KST3 120158Z 19005KT 26/11 A3012 RMK A01 T02620114  RH  040%=      5-min Rain = 0
KST3 120159Z 19005KT 26/11 A3012 RMK A01 T02620114  RH  040%=      5-min Rain = 0
KST3 120200Z 19005KT 26/11 A3012 RMK A01 T02620113  RH  039%=      5-min Rain = 0
KST3 120201Z 19005KT 26/11 A3012 RMK A01 T02630114  RH  039%=      5-min Rain = 0
KST3 120202Z 19004KT 26/11 A3012 RMK A01 T02640113  RH  039%=      5-min Rain = 0
KST3 120203Z 18005KT 26/11 A3013 RMK A01 T02640113  RH  039%=      5-min Rain = 0
KST3 120204Z 17004KT 27/11 A3013 RMK A01 T02650113  RH  039%=      5-min Rain = 0
KST3 120205Z 11005KT 27/11 A3013 RMK A01 T02650113  RH  039%=      5-min Rain = 0
KST3 120206Z 08007KT 26/11 A3013 RMK A01 T02610114  RH  040%=      5-min Rain = 0
KST3 120207Z 09008KT 26/12 A3013 RMK A01 T02560115  RH  041%=      5-min Rain = 0
KST3 120208Z 10007KT 25/12 A3013 RMK A01 T02530115  RH  042%=      5-min Rain = 0
KST3 120209Z 10007KT 25/12 A3013 RMK A01 T02510115  RH  043%=      5-min Rain = 0
KST3 120210Z 11005KT 25/12 A3013 RMK A01 T02490115  RH  043%=      5-min Rain = 0
KST3 120211Z 10005KT 25/12 A3013 RMK A01 T02480115  RH  043%=      5-min Rain = 0
KST3 120212Z 10005KT 25/12 A3013 RMK A01 T02480115  RH  043%=      5-min Rain = 0
KST3 120213Z 10005KT 25/12 A3013 RMK A01 T02480115  RH  043%=      5-min Rain = 0
KST3 120214Z 10005KT 25/12 A3013 RMK A01 T02480115  RH  043%=      5-min Rain = 0
KST3 120215Z 10004KT 25/12 A3013 RMK A01 T02460115  RH  044%=      5-min Rain = 0
KST3 120216Z 10005KT 24/11 A3013 RMK A01 T02440114  RH  044%=      5-min Rain = 0
KST3 120217Z 10005KT 24/11 A3013 RMK A01 T02430114  RH  044%=      5-min Rain = 0
KST3 120218Z 11006KT 24/11 A3013 RMK A01 T02410114  RH  045%=      5-min Rain = 0
KST3 120219Z 11006KT 24/11 A3013 RMK A01 T02390114  RH  045%=      5-min Rain = 0
KST3 120220Z 11006KT 24/12 A3013 RMK A01 T02380115  RH  046%=      5-min Rain = 0
KST3 120221Z 11006KT 24/12 A3013 RMK A01 T02380115  RH  046%=      5-min Rain = 0
KST3 120222Z 12005KT 24/12 A3013 RMK A01 T02380115  RH  046%=      5-min Rain = 0
KST3 120223Z 12006KT 24/12 A3013 RMK A01 T02390116  RH  046%=      5-min Rain = 0
KST3 120224Z 12006KT 24/12 A3013 RMK A01 T02400117  RH  046%=      5-min Rain = 0
KST3 120225Z 12006KT 24/12 A3013 RMK A01 T02400116  RH  046%=      5-min Rain = 0
KST3 120226Z 13006KT 24/12 A3013 RMK A01 T02400117  RH  046%=      5-min Rain = 0
KST3 120227Z 13006KT 24/12 A3013 RMK A01 T02400117  RH  046%=      5-min Rain = 0
KST3 120228Z 12006KT 24/12 A3013 RMK A01 T02400117  RH  046%=      5-min Rain = 0
KST3 120229Z 13006KT 24/12 A3013 RMK A01 T02410117  RH  046%=      5-min Rain = 0
KST3 120230Z 13006KT 24/12 A3013 RMK A01 T02410117  RH  046%=      5-min Rain = 0
KST3 120231Z 13005KT 24/12 A3013 RMK A01 T02410117  RH  046%=      5-min Rain = 0
KST3 120232Z 13005KT 24/12 A3013 RMK A01 T02410117  RH  046%=      5-min Rain = 0
KST3 120233Z 14005KT 24/12 A3014 RMK A01 T02420117  RH  046%=      5-min Rain = 0
KST3 120234Z 14005KT 24/12 A3014 RMK A01 T02420117  RH  046%=      5-min Rain = 0
KST3 120235Z 14005KT 24/12 A3014 RMK A01 T02410117  RH  046%=      5-min Rain = 0
KST3 120236Z 14005KT 24/12 A3014 RMK A01 T02410117  RH  046%=      5-min Rain = 0
KST3 120237Z 14004KT 24/12 A3014 RMK A01 T02400117  RH  046%=      5-min Rain = 0
KST3 120238Z 14005KT 24/12 A3014 RMK A01 T02390117  RH  046%=      5-min Rain = 0
KST3 120239Z 14004KT 24/12 A3014 RMK A01 T02390116  RH  046%=      5-min Rain = 0
KST3 120240Z 14004KT 24/12 A3014 RMK A01 T02380116  RH  046%=      5-min Rain = 0
KST3 120241Z 14004KT 24/12 A3014 RMK A01 T02370116  RH  047%=      5-min Rain = 0
KST3 120242Z 14004KT 24/12 A3014 RMK A01 T02360116  RH  047%=      5-min Rain = 0
KST3 120243Z 14004KT 24/12 A3014 RMK A01 T02360116  RH  047%=      5-min Rain = 0
KST3 120244Z 14005KT 24/12 A3014 RMK A01 T02350116  RH  047%=      5-min Rain = 0
KST3 120245Z 14005KT 24/12 A3014 RMK A01 T02350116  RH  047%=      5-min Rain = 0
KST3 120246Z 14005KT 24/12 A3014 RMK A01 T02350117  RH  047%=      5-min Rain = 0
KST3 120247Z 14005KT 24/12 A3014 RMK A01 T02350116  RH  047%=      5-min Rain = 0
KST3 120248Z 14005KT 24/12 A3014 RMK A01 T02350116  RH  047%=      5-min Rain = 0
KST3 120249Z 14004KT 24/12 A3014 RMK A01 T02350116  RH  047%=      5-min Rain = 0
KST3 120250Z 14004KT 23/12 A3014 RMK A01 T02340116  RH  047%=      5-min Rain = 0
KST3 120251Z 14005KT 23/12 A3014 RMK A01 T02340116  RH  048%=      5-min Rain = 0
KST3 120252Z 14004KT 23/12 A3014 RMK A01 T02340116  RH  048%=      5-min Rain = 0
KST3 120253Z 13004KT 23/12 A3014 RMK A01 T02330116  RH  048%=      5-min Rain = 0
KST3 120254Z 13004KT 23/12 A3014 RMK A01 T02330116  RH  048%=      5-min Rain = 0
KST3 120255Z 12004KT 23/12 A3014 RMK A01 T02330116  RH  048%=      5-min Rain = 0
KST3 120256Z 12004KT 23/12 A3014 RMK A01 T02320116  RH  048%=      5-min Rain = 0
KST3 120257Z 11005KT 23/12 A3014 RMK A01 T02320116  RH  048%=      5-min Rain = 0
KST3 120258Z 11005KT 23/12 A3014 RMK A01 T02310116  RH  048%=      5-min Rain = 0
KST3 120259Z 11005KT 23/12 A3014 RMK A01 T02300116  RH  049%=      5-min Rain = 0
KST3 120300Z 11005KT 23/12 A3014 RMK A01 T02280115  RH  049%=      5-min Rain = 0
KST3 120301Z 11005KT 23/12 A3014 RMK A01 T02270115  RH  049%=      5-min Rain = 0
KST3 120302Z 11005KT 23/12 A3014 RMK A01 T02260115  RH  050%=      5-min Rain = 0
KST3 120303Z 12005KT 23/12 A3014 RMK A01 T02250116  RH  050%=      5-min Rain = 0
KST3 120304Z 12005KT 22/12 A3014 RMK A01 T02240116  RH  050%=      5-min Rain = 0
KST3 120305Z 12005KT 22/12 A3014 RMK A01 T02230115  RH  050%=      5-min Rain = 0
KST3 120306Z 12005KT 22/12 A3014 RMK A01 T02230116  RH  050%=      5-min Rain = 0
KST3 120307Z 12005KT 22/12 A3014 RMK A01 T02230116  RH  050%=      5-min Rain = 0
KST3 120308Z 12005KT 22/12 A3014 RMK A01 T02240116  RH  050%=      5-min Rain = 0
KST3 120309Z 12005KT 22/12 A3014 RMK A01 T02240116  RH  050%=      5-min Rain = 0
KST3 120310Z 12004KT 23/12 A3014 RMK A01 T02250116  RH  050%=      5-min Rain = 0
KST3 120311Z 12004KT 23/12 A3014 RMK A01 T02250116  RH  050%=      5-min Rain = 0
KST3 120312Z 12004KT 23/12 A3014 RMK A01 T02260116  RH  050%=      5-min Rain = 0
KST3 120313Z 12004KT 23/12 A3014 RMK A01 T02270116  RH  050%=      5-min Rain = 0
KST3 120314Z 12004KT 23/12 A3014 RMK A01 T02270116  RH  049%=      5-min Rain = 0
KST3 120315Z 12003KT 23/12 A3014 RMK A01 T02280116  RH  049%=      5-min Rain = 0
KST3 120316Z 11004KT 23/12 A3014 RMK A01 T02280117  RH  049%=      5-min Rain = 0
KST3 120317Z 11004KT 23/12 A3014 RMK A01 T02290117  RH  049%=      5-min Rain = 0
KST3 120318Z 11004KT 23/12 A3014 RMK A01 T02290117  RH  049%=      5-min Rain = 0
KST3 120319Z 11004KT 23/12 A3014 RMK A01 T02280116  RH  049%=      5-min Rain = 0
KST3 120320Z 12004KT 23/12 A3014 RMK A01 T02280116  RH  049%=      5-min Rain = 0
KST3 120321Z 12004KT 23/12 A3014 RMK A01 T02280117  RH  049%=      5-min Rain = 0
KST3 120322Z 12004KT 23/12 A3014 RMK A01 T02270116  RH  050%=      5-min Rain = 0
KST3 120323Z 13004KT 23/12 A3014 RMK A01 T02270116  RH  050%=      5-min Rain = 0
KST3 120324Z 13004KT 23/12 A3014 RMK A01 T02260116  RH  050%=      5-min Rain = 0
KST3 120325Z 13004KT 23/12 A3014 RMK A01 T02260117  RH  050%=      5-min Rain = 0
KST3 120326Z 14004KT 23/12 A3014 RMK A01 T02260116  RH  050%=      5-min Rain = 0
KST3 120327Z 14004KT 23/12 A3014 RMK A01 T02260116  RH  050%=      5-min Rain = 0
KST3 120328Z 14004KT 23/12 A3014 RMK A01 T02260116  RH  050%=      5-min Rain = 0
KST3 120329Z 14003KT 23/12 A3014 RMK A01 T02260116  RH  050%=      5-min Rain = 0
KST3 120330Z 14003KT 23/12 A3014 RMK A01 T02260116  RH  050%=      5-min Rain = 0
KST3 120331Z 13003KT 23/12 A3014 RMK A01 T02270116  RH  050%=      5-min Rain = 0
KST3 120332Z 13004KT 23/12 A3014 RMK A01 T02270117  RH  050%=      5-min Rain = 0
KST3 120333Z 13004KT 23/12 A3014 RMK A01 T02270116  RH  050%=      5-min Rain = 0
KST3 120334Z 12004KT 23/12 A3014 RMK A01 T02270116  RH  050%=      5-min Rain = 0
KST3 120335Z 11003KT 23/12 A3014 RMK A01 T02270117  RH  050%=      5-min Rain = 0
KST3 120336Z 09002KT 23/12 A3014 RMK A01 T02260116  RH  050%=      5-min Rain = 0
KST3 120337Z 11003KT 23/12 A3014 RMK A01 T02250116  RH  050%=      5-min Rain = 0
KST3 120338Z 11002KT 22/12 A3014 RMK A01 T02240116  RH  050%=      5-min Rain = 0
KST3 120339Z 12003KT 22/12 A3014 RMK A01 T02230116  RH  051%=      5-min Rain = 0
KST3 120340Z 12003KT 22/12 A3014 RMK A01 T02230116  RH  051%=      5-min Rain = 0
KST3 120341Z 12004KT 22/12 A3014 RMK A01 T02230116  RH  051%=      5-min Rain = 0
KST3 120342Z 11004KT 22/12 A3014 RMK A01 T02230116  RH  051%=      5-min Rain = 0
KST3 120343Z 10004KT 22/12 A3014 RMK A01 T02230116  RH  051%=      5-min Rain = 0
KST3 120344Z 08003KT 22/12 A3014 RMK A01 T02230116  RH  051%=      5-min Rain = 0
KST3 120345Z 07003KT 22/12 A3014 RMK A01 T02220116  RH  051%=      5-min Rain = 0
KST3 120346Z 07003KT 22/12 A3014 RMK A01 T02200115  RH  051%=      5-min Rain = 0
KST3 120347Z 07003KT 22/12 A3014 RMK A01 T02190115  RH  052%=      5-min Rain = 0
KST3 120348Z 07003KT 22/12 A3014 RMK A01 T02170115  RH  052%=      5-min Rain = 0
KST3 120349Z 07003KT 22/12 A3015 RMK A01 T02160115  RH  053%=      5-min Rain = 0
KST3 120350Z 08004KT 22/12 A3015 RMK A01 T02150115  RH  053%=      5-min Rain = 0
KST3 120351Z 08003KT 21/11 A3015 RMK A01 T02130114  RH  053%=      5-min Rain = 0
KST3 120352Z 08004KT 21/12 A3015 RMK A01 T02120115  RH  054%=      5-min Rain = 0
KST3 120353Z 08005KT 21/12 A3015 RMK A01 T02100115  RH  054%=      5-min Rain = 0
KST3 120354Z 09005KT 21/12 A3015 RMK A01 T02100115  RH  055%=      5-min Rain = 0
KST3 120355Z 08004KT 21/12 A3015 RMK A01 T02090115  RH  055%=      5-min Rain = 0
KST3 120356Z 08004KT 21/12 A3015 RMK A01 T02090115  RH  055%=      5-min Rain = 0
KST3 120357Z 08004KT 21/12 A3015 RMK A01 T02080115  RH  055%=      5-min Rain = 0
KST3 120358Z 07004KT 21/12 A3015 RMK A01 T02080115  RH  055%=      5-min Rain = 0
KST3 120359Z 07003KT 21/12 A3015 RMK A01 T02070115  RH  055%=      5-min Rain = 0
KST3 120400Z 08004KT 21/12 A3015 RMK A01 T02070115  RH  056%=      5-min Rain = 0
KST3 120401Z 09005KT 21/12 A3015 RMK A01 T02070115  RH  056%=      5-min Rain = 0
KST3 120402Z 09006KT 21/11 A3015 RMK A01 T02060114  RH  056%=      5-min Rain = 0
KST3 120403Z 09005KT 21/12 A3015 RMK A01 T02050115  RH  056%=      5-min Rain = 0
KST3 120404Z 09005KT 21/12 A3015 RMK A01 T02050115  RH  056%=      5-min Rain = 0
KST3 120405Z 10005KT 21/12 A3015 RMK A01 T02050115  RH  056%=      5-min Rain = 0
KST3 120406Z 10005KT 21/12 A3015 RMK A01 T02050115  RH  056%=      5-min Rain = 0
KST3 120407Z 11005KT 21/12 A3015 RMK A01 T02050115  RH  056%=      5-min Rain = 0
KST3 120408Z 10005KT 21/12 A3015 RMK A01 T02050115  RH  056%=      5-min Rain = 0
KST3 120409Z 10007KT 21/12 A3015 RMK A01 T02060115  RH  056%=      5-min Rain = 0
KST3 120410Z 10006KT 21/12 A3015 RMK A01 T02060115  RH  056%=      5-min Rain = 0
KST3 120411Z 11006KT 21/12 A3015 RMK A01 T02060116  RH  056%=      5-min Rain = 0
KST3 120412Z 11006KT 21/12 A3015 RMK A01 T02060115  RH  056%=      5-min Rain = 0
KST3 120413Z 11005KT 21/12 A3015 RMK A01 T02060115  RH  056%=      5-min Rain = 0
KST3 120414Z 12004KT 21/12 A3015 RMK A01 T02070115  RH  056%=      5-min Rain = 0
KST3 120415Z 12004KT 21/12 A3015 RMK A01 T02060115  RH  056%=      5-min Rain = 0
KST3 120416Z 12004KT 21/12 A3015 RMK A01 T02060115  RH  056%=      5-min Rain = 0
KST3 120417Z 12004KT 21/12 A3015 RMK A01 T02060115  RH  056%=      5-min Rain = 0
KST3 120418Z 12004KT 21/12 A3015 RMK A01 T02060115  RH  056%=      5-min Rain = 0
KST3 120419Z 12004KT 21/12 A3015 RMK A01 T02070115  RH  056%=      5-min Rain = 0
KST3 120420Z 12004KT 21/12 A3015 RMK A01 T02070115  RH  056%=      5-min Rain = 0
KST3 120421Z 12005KT 21/12 A3015 RMK A01 T02070115  RH  055%=      5-min Rain = 0
KST3 120422Z 12005KT 21/12 A3015 RMK A01 T02070115  RH  055%=      5-min Rain = 0
KST3 120423Z 12006KT 21/12 A3015 RMK A01 T02070115  RH  056%=      5-min Rain = 0
KST3 120424Z 12006KT 21/12 A3015 RMK A01 T02060115  RH  056%=      5-min Rain = 0
KST3 120425Z 12005KT 21/12 A3015 RMK A01 T02050115  RH  056%=      5-min Rain = 0
KST3 120426Z 12005KT 21/12 A3015 RMK A01 T02050115  RH  056%=      5-min Rain = 0
KST3 120427Z 12004KT 21/12 A3015 RMK A01 T02050115  RH  056%=      5-min Rain = 0
KST3 120428Z 12005KT 21/12 A3015 RMK A01 T02060115  RH  056%=      5-min Rain = 0
KST3 120429Z 13005KT 21/12 A3015 RMK A01 T02060115  RH  056%=      5-min Rain = 0
KST3 120430Z 12004KT 21/12 A3015 RMK A01 T02060115  RH  056%=      5-min Rain = 0
KST3 120431Z 12004KT 21/12 A3015 RMK A01 T02060116  RH  056%=      5-min Rain = 0
KST3 120432Z 12004KT 21/12 A3015 RMK A01 T02070116  RH  056%=      5-min Rain = 0
KST3 120433Z 12005KT 21/12 A3015 RMK A01 T02060115  RH  056%=      5-min Rain = 0
KST3 120434Z 12005KT 21/12 A3015 RMK A01 T02060115  RH  056%=      5-min Rain = 0
KST3 120435Z 12005KT 21/12 A3015 RMK A01 T02060115  RH  056%=      5-min Rain = 0
KST3 120436Z 12004KT 21/12 A3015 RMK A01 T02060116  RH  056%=      5-min Rain = 0
KST3 120437Z 12004KT 21/12 A3015 RMK A01 T02060115  RH  056%=      5-min Rain = 0
KST3 120438Z 13004KT 21/12 A3015 RMK A01 T02050115  RH  056%=      5-min Rain = 0
KST3 120439Z 13004KT 21/12 A3015 RMK A01 T02050116  RH  057%=      5-min Rain = 0
KST3 120440Z 13004KT 21/12 A3015 RMK A01 T02050115  RH  056%=      5-min Rain = 0
KST3 120441Z 13004KT 21/12 A3015 RMK A01 T02050115  RH  056%=      5-min Rain = 0
KST3 120442Z 14004KT 21/12 A3015 RMK A01 T02050115  RH  056%=      5-min Rain = 0
KST3 120443Z 14004KT 21/12 A3015 RMK A01 T02050115  RH  056%=      5-min Rain = 0
KST3 120444Z 14004KT 20/12 A3015 RMK A01 T02040115  RH  057%=      5-min Rain = 0
KST3 120445Z 14004KT 20/12 A3015 RMK A01 T02040115  RH  057%=      5-min Rain = 0
KST3 120446Z 13004KT 20/12 A3015 RMK A01 T02040115  RH  057%=      5-min Rain = 0
KST3 120447Z 13004KT 20/12 A3015 RMK A01 T02030115  RH  057%=      5-min Rain = 0
KST3 120448Z 13004KT 20/12 A3015 RMK A01 T02030115  RH  057%=      5-min Rain = 0
KST3 120449Z 13004KT 20/12 A3015 RMK A01 T02030115  RH  057%=      5-min Rain = 0
KST3 120450Z 13004KT 20/12 A3015 RMK A01 T02020115  RH  057%=      5-min Rain = 0
KST3 120451Z 13005KT 20/12 A3015 RMK A01 T02020115  RH  057%=      5-min Rain = 0
KST3 120452Z 12005KT 20/12 A3015 RMK A01 T02010115  RH  057%=      5-min Rain = 0
KST3 120453Z 12005KT 20/12 A3015 RMK A01 T02010115  RH  058%=      5-min Rain = 0
KST3 120454Z 13005KT 20/12 A3015 RMK A01 T02010115  RH  058%=      5-min Rain = 0
KST3 120455Z 13004KT 20/12 A3015 RMK A01 T02010116  RH  058%=      5-min Rain = 0
KST3 120456Z 13004KT 20/12 A3015 RMK A01 T02010116  RH  058%=      5-min Rain = 0
KST3 120457Z 13004KT 20/12 A3015 RMK A01 T02010116  RH  058%=      5-min Rain = 0
KST3 120458Z 13004KT 20/12 A3015 RMK A01 T02020116  RH  058%=      5-min Rain = 0
KST3 120459Z 14004KT 20/12 A3015 RMK A01 T02030116  RH  057%=      5-min Rain = 0

Page generated in 0.1071 seconds.